Observation data for Colorado City on 11/14/2019      Previous  Date  Next       Current Mesonet Observations  Soil Data  Daily Summary Page  Observations in Plain Language
KCO2 140600Z 13004KT 01/00 A3008 RMK A01 T00130002  RH  093%=      5-min Rain = 0
KCO2 140601Z 12004KT 01/00 A3008 RMK A01 T00130002  RH  093%=      5-min Rain = 0
KCO2 140602Z 12004KT 01/00 A3008 RMK A01 T00130002  RH  092%=      5-min Rain = 0
KCO2 140603Z 11003KT 01/00 A3008 RMK A01 T00130001  RH  092%=      5-min Rain = 0
KCO2 140604Z 11003KT 01/00 A3008 RMK A01 T00120001  RH  092%=      5-min Rain = 0
KCO2 140605Z 11003KT 01/00 A3008 RMK A01 T00120000  RH  092%=      5-min Rain = 0
KCO2 140606Z 11003KT 01/M00 A3008 RMK A01 T00111001  RH  092%=      5-min Rain = 0
KCO2 140607Z 11003KT 01/M00 A3008 RMK A01 T00101001  RH  092%=      5-min Rain = 0
KCO2 140608Z 11003KT 01/M00 A3008 RMK A01 T00091002  RH  092%=      5-min Rain = 0
KCO2 140609Z 11003KT 01/M00 A3008 RMK A01 T00091001  RH  093%=      5-min Rain = 0
KCO2 140610Z 12003KT 01/M00 A3008 RMK A01 T00091001  RH  093%=      5-min Rain = 0
KCO2 140611Z 13003KT 01/M00 A3008 RMK A01 T00091001  RH  093%=      5-min Rain = 0
KCO2 140612Z 13003KT 01/M00 A3008 RMK A01 T00091001  RH  093%=      5-min Rain = 0
KCO2 140613Z 13003KT 01/M00 A3008 RMK A01 T00091001  RH  093%=      5-min Rain = 0
KCO2 140614Z 14004KT 01/00 A3008 RMK A01 T000900-0  RH  093%=      5-min Rain = 0
KCO2 140615Z 14004KT 01/00 A3008 RMK A01 T000900-0  RH  093%=      5-min Rain = 0
KCO2 140616Z 14004KT 01/00 A3008 RMK A01 T000900-0  RH  093%=      5-min Rain = 0
KCO2 140617Z 14004KT 01/M00 A3008 RMK A01 T00091001  RH  093%=      5-min Rain = 0
KCO2 140618Z 14004KT 01/M00 A3008 RMK A01 T00081001  RH  093%=      5-min Rain = 0
KCO2 140619Z 14004KT 01/M00 A3008 RMK A01 T00081001  RH  093%=      5-min Rain = 0
KCO2 140620Z 14004KT 01/00 A3008 RMK A01 T000900-0  RH  094%=      5-min Rain = 0
KCO2 140621Z 14004KT 01/00 A3008 RMK A01 T00090001  RH  094%=      5-min Rain = 0
KCO2 140622Z 14005KT 01/00 A3009 RMK A01 T00090000  RH  094%=      5-min Rain = 0
KCO2 140623Z 14005KT 01/M00 A3009 RMK A01 T00081001  RH  094%=      5-min Rain = 0
KCO2 140624Z 14005KT 01/M00 A3009 RMK A01 T00071003  RH  093%=      5-min Rain = 0
KCO2 140625Z 14005KT 01/M00 A3009 RMK A01 T00061003  RH  093%=      5-min Rain = 0
KCO2 140626Z 14004KT 01/M00 A3009 RMK A01 T00071003  RH  094%=      5-min Rain = 0
KCO2 140627Z 15004KT 01/M00 A3009 RMK A01 T00071002  RH  094%=      5-min Rain = 0
KCO2 140628Z 14004KT 01/M00 A3009 RMK A01 T00071002  RH  094%=      5-min Rain = 0
KCO2 140629Z 14004KT 01/M00 A3009 RMK A01 T00071001  RH  094%=      5-min Rain = 0
KCO2 140630Z 14004KT 01/00 A3009 RMK A01 T00080000  RH  095%=      5-min Rain = 0
KCO2 140631Z 14004KT 01/00 A3009 RMK A01 T00090001  RH  095%=      5-min Rain = 0
KCO2 140632Z 15003KT 01/00 A3009 RMK A01 T00090001  RH  095%=      5-min Rain = 0
KCO2 140633Z 15003KT 01/00 A3009 RMK A01 T00090001  RH  095%=      5-min Rain = 0
KCO2 140634Z 15003KT 01/00 A3009 RMK A01 T00090002  RH  095%=      5-min Rain = 0
KCO2 140635Z 15003KT 01/00 A3009 RMK A01 T00100002  RH  095%=      5-min Rain = 0
KCO2 140636Z 15003KT 01/00 A3009 RMK A01 T00100003  RH  095%=      5-min Rain = 0
KCO2 140637Z 15003KT 01/00 A3009 RMK A01 T00110004  RH  095%=      5-min Rain = 0
KCO2 140638Z 15003KT 01/01 A3009 RMK A01 T00120005  RH  095%=      5-min Rain = 0
KCO2 140639Z 15003KT 01/01 A3009 RMK A01 T00130006  RH  095%=      5-min Rain = 0
KCO2 140640Z 15003KT 01/01 A3009 RMK A01 T00130006  RH  095%=      5-min Rain = 0
KCO2 140641Z 15003KT 01/01 A3009 RMK A01 T00140007  RH  095%=      5-min Rain = 0
KCO2 140642Z 15002KT 01/01 A3009 RMK A01 T00140007  RH  095%=      5-min Rain = 0
KCO2 140643Z 15002KT 01/01 A3009 RMK A01 T00140007  RH  095%=      5-min Rain = 0
KCO2 140644Z 15002KT 01/01 A3009 RMK A01 T00140007  RH  095%=      5-min Rain = 0
KCO2 140645Z 15003KT 01/01 A3009 RMK A01 T00140007  RH  095%=      5-min Rain = 0
KCO2 140646Z 15003KT 02/01 A3009 RMK A01 T00150007  RH  095%=      5-min Rain = 0
KCO2 140647Z 15002KT 02/01 A3009 RMK A01 T00150007  RH  095%=      5-min Rain = 0
KCO2 140648Z 15002KT 01/01 A3009 RMK A01 T00140006  RH  094%=      5-min Rain = 0
KCO2 140649Z 15002KT 01/01 A3009 RMK A01 T00140006  RH  094%=      5-min Rain = 0
KCO2 140650Z 15002KT 01/01 A3009 RMK A01 T00140005  RH  094%=      5-min Rain = 0
KCO2 140651Z 15002KT 01/01 A3009 RMK A01 T00140005  RH  094%=      5-min Rain = 0
KCO2 140652Z 15002KT 01/01 A3009 RMK A01 T00140005  RH  094%=      5-min Rain = 0
KCO2 140653Z 15002KT 01/01 A3009 RMK A01 T00140006  RH  094%=      5-min Rain = 0
KCO2 140654Z 15002KT 02/01 A3009 RMK A01 T00150006  RH  094%=      5-min Rain = 0
KCO2 140655Z 15002KT 02/01 A3009 RMK A01 T00150006  RH  094%=      5-min Rain = 0
KCO2 140656Z 15001KT 02/01 A3009 RMK A01 T00150006  RH  094%=      5-min Rain = 0
KCO2 140657Z 15001KT 01/01 A3009 RMK A01 T00140005  RH  094%=      5-min Rain = 0
KCO2 140658Z 15002KT 01/01 A3009 RMK A01 T00140005  RH  094%=      5-min Rain = 0
KCO2 140659Z 15002KT 01/00 A3009 RMK A01 T00140004  RH  094%=      5-min Rain = 0
KCO2 140700Z 15002KT 01/01 A3009 RMK A01 T00140005  RH  094%=      5-min Rain = 0
KCO2 140701Z 15002KT 01/01 A3009 RMK A01 T00140005  RH  094%=      5-min Rain = 0
KCO2 140702Z 15002KT 01/01 A301 RMK A01 T00140005  RH  094%=      5-min Rain = 0
KCO2 140703Z 15002KT 01/00 A301 RMK A01 T00140004  RH  094%=      5-min Rain = 0
KCO2 140704Z 15002KT 01/00 A301 RMK A01 T00130004  RH  093%=      5-min Rain = 0
KCO2 140705Z 15002KT 01/00 A301 RMK A01 T00120002  RH  093%=      5-min Rain = 0
KCO2 140706Z 15002KT 01/00 A301 RMK A01 T00120002  RH  093%=      5-min Rain = 0
KCO2 140707Z 15003KT 01/00 A301 RMK A01 T00130004  RH  094%=      5-min Rain = 0
KCO2 140708Z 15003KT 02/01 A301 RMK A01 T00150006  RH  094%=      5-min Rain = 0
KCO2 140709Z 15002KT 02/01 A301 RMK A01 T00150007  RH  094%=      5-min Rain = 0
KCO2 140710Z 15002KT 02/01 A301 RMK A01 T00160007  RH  094%=      5-min Rain = 0
KCO2 140711Z 15003KT 02/01 A301 RMK A01 T00160007  RH  094%=      5-min Rain = 0
KCO2 140712Z 16003KT 02/01 A301 RMK A01 T00160008  RH  094%=      5-min Rain = 0
KCO2 140713Z 16003KT 02/01 A301 RMK A01 T00170009  RH  094%=      5-min Rain = 0
KCO2 140714Z 16004KT 02/01 A301 RMK A01 T00180010  RH  094%=      5-min Rain = 0
KCO2 140715Z 16004KT 02/01 A301 RMK A01 T00180010  RH  094%=      5-min Rain = 0
KCO2 140716Z 16004KT 02/01 A301 RMK A01 T00180009  RH  094%=      5-min Rain = 0
KCO2 140717Z 16004KT 02/01 A3011 RMK A01 T00170008  RH  094%=      5-min Rain = 0
KCO2 140718Z 16004KT 02/01 A3011 RMK A01 T00150005  RH  093%=      5-min Rain = 0
KCO2 140719Z 16004KT 01/00 A3011 RMK A01 T00130003  RH  093%=      5-min Rain = 0
KCO2 140720Z 16004KT 01/00 A3011 RMK A01 T00120002  RH  093%=      5-min Rain = 0
KCO2 140721Z 16004KT 01/00 A3011 RMK A01 T00110001  RH  093%=      5-min Rain = 0
KCO2 140722Z 16004KT 01/00 A3011 RMK A01 T00100001  RH  094%=      5-min Rain = 0
KCO2 140723Z 16004KT 01/00 A3011 RMK A01 T00090000  RH  094%=      5-min Rain = 0
KCO2 140724Z 16004KT 01/00 A3011 RMK A01 T00090000  RH  094%=      5-min Rain = 0
KCO2 140725Z 16003KT 01/00 A3011 RMK A01 T00090001  RH  094%=      5-min Rain = 0
KCO2 140726Z 16003KT 01/00 A3011 RMK A01 T00090001  RH  095%=      5-min Rain = 0
KCO2 140727Z 15003KT 01/00 A3011 RMK A01 T00090002  RH  095%=      5-min Rain = 0
KCO2 140728Z 15003KT 01/00 A3011 RMK A01 T00090002  RH  095%=      5-min Rain = 0
KCO2 140729Z 15003KT 01/00 A3011 RMK A01 T00100002  RH  095%=      5-min Rain = 0
KCO2 140730Z 15003KT 01/00 A3011 RMK A01 T00100003  RH  095%=      5-min Rain = 0
KCO2 140731Z 15003KT 01/00 A3011 RMK A01 T00100003  RH  095%=      5-min Rain = 0
KCO2 140732Z 15003KT 01/00 A3011 RMK A01 T00100003  RH  095%=      5-min Rain = 0
KCO2 140733Z 16004KT 01/00 A3011 RMK A01 T00100003  RH  095%=      5-min Rain = 0
KCO2 140734Z 16004KT 01/00 A3011 RMK A01 T00100003  RH  095%=      5-min Rain = 0
KCO2 140735Z 16004KT 01/00 A3011 RMK A01 T00090003  RH  095%=      5-min Rain = 0
KCO2 140736Z 16003KT 01/00 A3011 RMK A01 T00090002  RH  095%=      5-min Rain = 0
KCO2 140737Z 16003KT 01/00 A3011 RMK A01 T00080002  RH  095%=      5-min Rain = 0
KCO2 140738Z 16003KT 01/00 A3011 RMK A01 T00080002  RH  095%=      5-min Rain = 0
KCO2 140739Z 15003KT 01/00 A3011 RMK A01 T00090002  RH  096%=      5-min Rain = 0
KCO2 140740Z 15003KT 01/00 A3011 RMK A01 T00080002  RH  096%=      5-min Rain = 0
KCO2 140741Z 15002KT 01/00 A3011 RMK A01 T00090003  RH  096%=      5-min Rain = 0
KCO2 140742Z 15002KT 01/00 A3011 RMK A01 T00090003  RH  096%=      5-min Rain = 0
KCO2 140743Z 15002KT 01/00 A3011 RMK A01 T00090003  RH  096%=      5-min Rain = 0
KCO2 140744Z 15002KT 01/00 A3011 RMK A01 T00090003  RH  096%=      5-min Rain = 0
KCO2 140745Z 15001KT 01/00 A3011 RMK A01 T00090002  RH  096%=      5-min Rain = 0
KCO2 140746Z 15001KT 01/00 A3011 RMK A01 T00080002  RH  096%=      5-min Rain = 0
KCO2 140747Z 15001KT 01/00 A3011 RMK A01 T00070001  RH  095%=      5-min Rain = 0
KCO2 140748Z 15001KT 01/M00 A3011 RMK A01 T00051002  RH  095%=      5-min Rain = 0
KCO2 140749Z 15001KT 00/M00 A3011 RMK A01 T00041003  RH  095%=      5-min Rain = 0
KCO2 140750Z 15002KT 00/M00 A3011 RMK A01 T00041003  RH  095%=      5-min Rain = 0
KCO2 140751Z 15002KT 00/M00 A3011 RMK A01 T00031003  RH  095%=      5-min Rain = 0
KCO2 140752Z 15002KT 00/M00 A3011 RMK A01 T00031004  RH  095%=      5-min Rain = 0
KCO2 140753Z 16002KT 00/M00 A3011 RMK A01 T00021004  RH  095%=      5-min Rain = 0
KCO2 140754Z 17002KT 00/M00 A3011 RMK A01 T00021004  RH  096%=      5-min Rain = 0
KCO2 140755Z 17002KT 00/M00 A3011 RMK A01 T00031004  RH  096%=      5-min Rain = 0
KCO2 140756Z 17001KT 00/M00 A3011 RMK A01 T00031003  RH  096%=      5-min Rain = 0
KCO2 140757Z 17001KT 00/M00 A3011 RMK A01 T00031003  RH  096%=      5-min Rain = 0
KCO2 140758Z 17001KT 00/M00 A3011 RMK A01 T00021004  RH  096%=      5-min Rain = 0
KCO2 140759Z 17001KT 00/M01 A3011 RMK A01 T00011005  RH  096%=      5-min Rain = 0
KCO2 140800Z 17001KT 00/01 A3011 RMK A01 T000000-6  RH  096%=      5-min Rain = 0
KCO2 140801Z 17000KT 00/01 A3011 RMK A01 T00-000-7  RH  096%=      5-min Rain = 0
KCO2 140802Z 00000KT 00/01 A3011 RMK A01 T00-000-6  RH  096%=      5-min Rain = 0
KCO2 140803Z 00000KT 00/01 A3011 RMK A01 T00-000-6  RH  096%=      5-min Rain = 0
KCO2 140804Z 00000KT 00/01 A3011 RMK A01 T00-000-6  RH  096%=      5-min Rain = 0
KCO2 140805Z 00000KT 00/M01 A3012 RMK A01 T00011005  RH  096%=      5-min Rain = 0
KCO2 140806Z 00000KT 00/M01 A3011 RMK A01 T00011005  RH  096%=      5-min Rain = 0
KCO2 140807Z 00000KT 00/M01 A3011 RMK A01 T00011005  RH  096%=      5-min Rain = 0
KCO2 140808Z 00000KT 00/01 A3011 RMK A01 T000000-5  RH  096%=      5-min Rain = 0
KCO2 140809Z 00000KT 00/01 A3011 RMK A01 T000000-5  RH  096%=      5-min Rain = 0
KCO2 140810Z 00000KT 00/01 A3011 RMK A01 T00-000-6  RH  096%=      5-min Rain = 0
KCO2 140811Z 00000KT 00/01 A3011 RMK A01 T000000-5  RH  096%=      5-min Rain = 0
KCO2 140812Z 00000KT 00/01 A3011 RMK A01 T000000-5  RH  096%=      5-min Rain = 0
KCO2 140813Z 00000KT 00/01 A3011 RMK A01 T000000-5  RH  096%=      5-min Rain = 0
KCO2 140814Z 17000KT 00/01 A3011 RMK A01 T000000-5  RH  096%=      5-min Rain = 0
KCO2 140815Z 17001KT 00/01 A3011 RMK A01 T000000-5  RH  096%=      5-min Rain = 0
KCO2 140816Z 23001KT 00/01 A3011 RMK A01 T000000-5  RH  096%=      5-min Rain = 0
KCO2 140817Z 32002KT M00/M01 A3011 RMK A01 T10011007  RH  096%=      5-min Rain = 0
KCO2 140818Z 32002KT M00/M01 A3011 RMK A01 T10011007  RH  096%=      5-min Rain = 0
KCO2 140819Z 32002KT M00/M01 A3011 RMK A01 T10031009  RH  096%=      5-min Rain = 0
KCO2 140820Z 32002KT M01/M01 A3011 RMK A01 T10061013  RH  095%=      5-min Rain = 0
KCO2 140821Z 32002KT M01/M02 A3011 RMK A01 T10101017  RH  095%=      5-min Rain = 0
KCO2 140822Z 32003KT M01/M02 A3011 RMK A01 T10121019  RH  095%=      5-min Rain = 0
KCO2 140823Z 33003KT M01/M02 A3012 RMK A01 T10131020  RH  095%=      5-min Rain = 0
KCO2 140824Z 33003KT M01/M02 A3012 RMK A01 T10141022  RH  095%=      5-min Rain = 0
KCO2 140825Z 34003KT M02/M02 A3012 RMK A01 T10151022  RH  095%=      5-min Rain = 0
KCO2 140826Z 34003KT M02/M02 A3011 RMK A01 T10161023  RH  095%=      5-min Rain = 0
KCO2 140827Z 35004KT M02/M02 A3011 RMK A01 T10171023  RH  095%=      5-min Rain = 0
KCO2 140828Z 34004KT M02/M03 A3011 RMK A01 T10181025  RH  095%=      5-min Rain = 0
KCO2 140829Z 35005KT M02/M02 A3011 RMK A01 T10181024  RH  095%=      5-min Rain = 0
KCO2 140830Z 35005KT M02/M03 A3011 RMK A01 T10191025  RH  096%=      5-min Rain = 0
KCO2 140831Z 35005KT M02/M02 A3011 RMK A01 T10181024  RH  096%=      5-min Rain = 0
KCO2 140832Z 35006KT M02/M02 A3011 RMK A01 T10181024  RH  096%=      5-min Rain = 0
KCO2 140833Z 35005KT M02/M02 A3011 RMK A01 T10171022  RH  096%=      5-min Rain = 0
KCO2 140834Z 35006KT M02/M02 A3011 RMK A01 T10161021  RH  096%=      5-min Rain = 0
KCO2 140835Z 35006KT M01/M02 A3011 RMK A01 T10141019  RH  097%=      5-min Rain = 0
KCO2 140836Z 35007KT M01/M02 A3011 RMK A01 T10131017  RH  097%=      5-min Rain = 0
KCO2 140837Z 35007KT M01/M02 A3011 RMK A01 T10121016  RH  097%=      5-min Rain = 0
KCO2 140838Z 35007KT M01/M02 A3011 RMK A01 T10121016  RH  097%=      5-min Rain = 0
KCO2 140839Z 35007KT M01/M02 A3011 RMK A01 T10111015  RH  097%=      5-min Rain = 0
KCO2 140840Z 35007KT M01/M01 A3011 RMK A01 T10101014  RH  097%=      5-min Rain = 0
KCO2 140841Z 35007KT M01/M01 A3011 RMK A01 T10091013  RH  097%=      5-min Rain = 0
KCO2 140842Z 35007KT M01/M01 A3011 RMK A01 T10081012  RH  097%=      5-min Rain = 0
KCO2 140843Z 35007KT M01/M01 A3011 RMK A01 T10081012  RH  097%=      5-min Rain = 0
KCO2 140844Z 35008KT M01/M01 A3011 RMK A01 T10081011  RH  097%=      5-min Rain = 0
KCO2 140845Z 35007KT M01/M01 A3011 RMK A01 T10081011  RH  097%=      5-min Rain = 0
KCO2 140846Z 35008KT M01/M01 A3011 RMK A01 T10071011  RH  097%=      5-min Rain = 0
KCO2 140847Z 35007KT M01/M01 A3011 RMK A01 T10071011  RH  097%=      5-min Rain = 0
KCO2 140848Z 35007KT M01/M01 A3011 RMK A01 T10061010  RH  097%=      5-min Rain = 0
KCO2 140849Z 35007KT M01/M01 A3011 RMK A01 T10061010  RH  097%=      5-min Rain = 0
KCO2 140850Z 36006KT M01/M01 A3011 RMK A01 T10061009  RH  097%=      5-min Rain = 0
KCO2 140851Z 35006KT M01/M01 A3011 RMK A01 T10051009  RH  097%=      5-min Rain = 0
KCO2 140852Z 35006KT M01/M01 A3012 RMK A01 T10051009  RH  097%=      5-min Rain = 0
KCO2 140853Z 35006KT M01/M01 A3012 RMK A01 T10051008  RH  097%=      5-min Rain = 0
KCO2 140854Z 36005KT M01/M01 A3012 RMK A01 T10051009  RH  097%=      5-min Rain = 0
KCO2 140855Z 00005KT M01/M01 A3012 RMK A01 T10051009  RH  097%=      5-min Rain = 0
KCO2 140856Z 01004KT M00/M01 A3012 RMK A01 T10041008  RH  097%=      5-min Rain = 0
KCO2 140857Z 01003KT M00/M01 A3012 RMK A01 T10041007  RH  098%=      5-min Rain = 0
KCO2 140858Z 00003KT M00/M01 A3012 RMK A01 T10031007  RH  098%=      5-min Rain = 0
KCO2 140859Z 01003KT M00/M01 A3012 RMK A01 T10031007  RH  098%=      5-min Rain = 0
KCO2 140900Z 01003KT M00/M01 A3012 RMK A01 T10031007  RH  097%=      5-min Rain = 0
KCO2 140901Z 01003KT M00/M01 A3012 RMK A01 T10041008  RH  097%=      5-min Rain = 0
KCO2 140902Z 01003KT M01/M01 A3012 RMK A01 T10051009  RH  097%=      5-min Rain = 0
KCO2 140903Z 01003KT M01/M01 A3012 RMK A01 T10071011  RH  097%=      5-min Rain = 0
KCO2 140904Z 01004KT M01/M01 A3012 RMK A01 T10071011  RH  097%=      5-min Rain = 0
KCO2 140905Z 01004KT M01/M01 A3012 RMK A01 T10071011  RH  097%=      5-min Rain = 0
KCO2 140906Z 01004KT M01/M01 A3013 RMK A01 T10071011  RH  097%=      5-min Rain = 0
KCO2 140907Z 01004KT M01/M01 A3013 RMK A01 T10071012  RH  097%=      5-min Rain = 0
KCO2 140908Z 01005KT M01/M01 A3013 RMK A01 T10081013  RH  097%=      5-min Rain = 0
KCO2 140909Z 00006KT M01/M01 A3013 RMK A01 T10091013  RH  097%=      5-min Rain = 0
KCO2 140910Z 00005KT M01/M01 A3013 RMK A01 T10101014  RH  097%=      5-min Rain = 0
KCO2 140911Z 01006KT M01/M01 A3013 RMK A01 T10101014  RH  097%=      5-min Rain = 0
KCO2 140912Z 01006KT M01/M01 A3013 RMK A01 T10101014  RH  097%=      5-min Rain = 0
KCO2 140913Z 01006KT M01/M01 A3013 RMK A01 T10101014  RH  097%=      5-min Rain = 0
KCO2 140914Z 01006KT M01/M01 A3013 RMK A01 T10101014  RH  097%=      5-min Rain = 0
KCO2 140915Z 01006KT M01/M01 A3013 RMK A01 T10101014  RH  097%=      5-min Rain = 0
KCO2 140916Z 01006KT M01/M01 A3013 RMK A01 T10101014  RH  097%=      5-min Rain = 0
KCO2 140917Z 01007KT M01/M01 A3013 RMK A01 T10101014  RH  097%=      5-min Rain = 0
KCO2 140918Z 00007KT M01/M01 A3013 RMK A01 T10101014  RH  097%=      5-min Rain = 0
KCO2 140919Z 00007KT M01/M01 A3013 RMK A01 T10101014  RH  097%=      5-min Rain = 0
KCO2 140920Z 01007KT M01/M01 A3013 RMK A01 T10101014  RH  097%=      5-min Rain = 0
KCO2 140921Z 01007KT M01/M01 A3013 RMK A01 T10091013  RH  097%=      5-min Rain = 0
KCO2 140922Z 01007KT M01/M01 A3013 RMK A01 T10091013  RH  097%=      5-min Rain = 0
KCO2 140923Z 01006KT M01/M01 A3013 RMK A01 T10091013  RH  097%=      5-min Rain = 0
KCO2 140924Z 01006KT M01/M01 A3013 RMK A01 T10091012  RH  097%=      5-min Rain = 0
KCO2 140925Z 01006KT M01/M01 A3013 RMK A01 T10091013  RH  097%=      5-min Rain = 0
KCO2 140926Z 01006KT M01/M01 A3013 RMK A01 T10081012  RH  097%=      5-min Rain = 0
KCO2 140927Z 01006KT M01/M01 A3013 RMK A01 T10081012  RH  097%=      5-min Rain = 0
KCO2 140928Z 02006KT M01/M01 A3013 RMK A01 T10081012  RH  097%=      5-min Rain = 0
KCO2 140929Z 02006KT M01/M01 A3013 RMK A01 T10081012  RH  097%=      5-min Rain = 0
KCO2 140930Z 01005KT M01/M01 A3013 RMK A01 T10081012  RH  097%=      5-min Rain = 0
KCO2 140931Z 00005KT M01/M01 A3013 RMK A01 T10081012  RH  097%=      5-min Rain = 0
KCO2 140932Z 03005KT M01/M01 A3013 RMK A01 T10071011  RH  097%=      5-min Rain = 0
KCO2 140933Z 04006KT M01/M01 A3014 RMK A01 T10071011  RH  097%=      5-min Rain = 0
KCO2 140934Z 01004KT M01/M01 A3013 RMK A01 T10071011  RH  097%=      5-min Rain = 0
KCO2 140935Z 35003KT M01/M01 A3013 RMK A01 T10071012  RH  097%=      5-min Rain = 0
KCO2 140936Z 03005KT M01/M01 A3014 RMK A01 T10081012  RH  097%=      5-min Rain = 0
KCO2 140937Z 02005KT M01/M01 A3014 RMK A01 T10081012  RH  097%=      5-min Rain = 0
KCO2 140938Z 02004KT M01/M01 A3014 RMK A01 T10071011  RH  097%=      5-min Rain = 0
KCO2 140939Z 02005KT M01/M01 A3014 RMK A01 T10071011  RH  097%=      5-min Rain = 0
KCO2 140940Z 02005KT M01/M01 A3014 RMK A01 T10071011  RH  097%=      5-min Rain = 0
KCO2 140941Z 03006KT M01/M01 A3014 RMK A01 T10071011  RH  097%=      5-min Rain = 0
KCO2 140942Z 02006KT M01/M01 A3014 RMK A01 T10071011  RH  097%=      5-min Rain = 0
KCO2 140943Z 01006KT M01/M01 A3014 RMK A01 T10081012  RH  097%=      5-min Rain = 0
KCO2 140944Z 02006KT M01/M01 A3014 RMK A01 T10081012  RH  097%=      5-min Rain = 0
KCO2 140945Z 02006KT M01/M01 A3014 RMK A01 T10071011  RH  097%=      5-min Rain = 0
KCO2 140946Z 02007KT M01/M01 A3014 RMK A01 T10071011  RH  097%=      5-min Rain = 0
KCO2 140947Z 02007KT M01/M01 A3014 RMK A01 T10071011  RH  097%=      5-min Rain = 0
KCO2 140948Z 02007KT M01/M01 A3014 RMK A01 T10071011  RH  097%=      5-min Rain = 0
KCO2 140949Z 01007KT M01/M01 A3014 RMK A01 T10071011  RH  097%=      5-min Rain = 0
KCO2 140950Z 01007KT M01/M01 A3014 RMK A01 T10071011  RH  097%=      5-min Rain = 0
KCO2 140951Z 01007KT M01/M01 A3014 RMK A01 T10071011  RH  097%=      5-min Rain = 0
KCO2 140952Z 02007KT M01/M01 A3014 RMK A01 T10061011  RH  097%=      5-min Rain = 0
KCO2 140953Z 02007KT M01/M01 A3014 RMK A01 T10061010  RH  097%=      5-min Rain = 0
KCO2 140954Z 02007KT M01/M01 A3014 RMK A01 T10061011  RH  097%=      5-min Rain = 0
KCO2 140955Z 02007KT M01/M01 A3014 RMK A01 T10071011  RH  097%=      5-min Rain = 0
KCO2 140956Z 02007KT M01/M01 A3014 RMK A01 T10071011  RH  097%=      5-min Rain = 0
KCO2 140957Z 03007KT M01/M01 A3014 RMK A01 T10071011  RH  097%=      5-min Rain = 0
KCO2 140958Z 02006KT M01/M01 A3014 RMK A01 T10071011  RH  097%=      5-min Rain = 0
KCO2 140959Z 02006KT M01/M01 A3014 RMK A01 T10081012  RH  097%=      5-min Rain = 0
KCO2 141000Z 02006KT M01/M01 A3014 RMK A01 T10081012  RH  097%=      5-min Rain = 0
KCO2 141001Z 02006KT M01/M01 A3014 RMK A01 T10081012  RH  097%=      5-min Rain = 0
KCO2 141002Z 02006KT M01/M01 A3014 RMK A01 T10081012  RH  097%=      5-min Rain = 0
KCO2 141003Z 01006KT M01/M01 A3014 RMK A01 T10081013  RH  097%=      5-min Rain = 0
KCO2 141004Z 02006KT M01/M01 A3014 RMK A01 T10081012  RH  097%=      5-min Rain = 0
KCO2 141005Z 02005KT M01/M01 A3014 RMK A01 T10081013  RH  097%=      5-min Rain = 0
KCO2 141006Z 03004KT M01/M01 A3014 RMK A01 T10081013  RH  097%=      5-min Rain = 0
KCO2 141007Z 03004KT M01/M01 A3014 RMK A01 T10081012  RH  097%=      5-min Rain = 0
KCO2 141008Z 03004KT M01/M01 A3014 RMK A01 T10091013  RH  097%=      5-min Rain = 0
KCO2 141009Z 03004KT M01/M01 A3014 RMK A01 T10091014  RH  097%=      5-min Rain = 0
KCO2 141010Z 03004KT M01/M02 A3014 RMK A01 T10101015  RH  097%=      5-min Rain = 0
KCO2 141011Z 03004KT M01/M02 A3014 RMK A01 T10101015  RH  097%=      5-min Rain = 0
KCO2 141012Z 04004KT M01/M02 A3014 RMK A01 T10101015  RH  097%=      5-min Rain = 0
KCO2 141013Z 04004KT M01/M02 A3014 RMK A01 T10111015  RH  097%=      5-min Rain = 0
KCO2 141014Z 04004KT M01/M02 A3015 RMK A01 T10101015  RH  097%=      5-min Rain = 0
KCO2 141015Z 05004KT M01/M01 A3015 RMK A01 T10091014  RH  097%=      5-min Rain = 0
KCO2 141016Z 06003KT M01/M01 A3015 RMK A01 T10081012  RH  097%=      5-min Rain = 0
KCO2 141017Z 05004KT M01/M01 A3015 RMK A01 T10071012  RH  097%=      5-min Rain = 0
KCO2 141018Z 04005KT M01/M01 A3015 RMK A01 T10071011  RH  097%=      5-min Rain = 0
KCO2 141019Z 04004KT M01/M01 A3015 RMK A01 T10051009  RH  097%=      5-min Rain = 0
KCO2 141020Z 03005KT M00/M01 A3015 RMK A01 T10031007  RH  097%=      5-min Rain = 0
KCO2 141021Z 02006KT M00/M00 A3015 RMK A01 T10011004  RH  098%=      5-min Rain = 0
KCO2 141022Z 03005KT 00/M00 A3015 RMK A01 T00021002  RH  098%=      5-min Rain = 0
KCO2 141023Z 02006KT 00/M00 A3015 RMK A01 T00021002  RH  097%=      5-min Rain = 0
KCO2 141024Z 02005KT 00/M00 A3015 RMK A01 T00031001  RH  097%=      5-min Rain = 0
KCO2 141025Z 02006KT 00/00 A3015 RMK A01 T000400-0  RH  097%=      5-min Rain = 0
KCO2 141026Z 03005KT 00/00 A3015 RMK A01 T00040000  RH  097%=      5-min Rain = 0
KCO2 141027Z 03005KT 01/00 A3015 RMK A01 T00050001  RH  097%=      5-min Rain = 0
KCO2 141028Z 03005KT 01/00 A3015 RMK A01 T000500-0  RH  097%=      5-min Rain = 0
KCO2 141029Z 02005KT 00/M00 A3015 RMK A01 T00041001  RH  096%=      5-min Rain = 0
KCO2 141030Z 02006KT 00/M00 A3015 RMK A01 T00041002  RH  096%=      5-min Rain = 0
KCO2 141031Z 02005KT 00/M00 A3015 RMK A01 T00041002  RH  096%=      5-min Rain = 0
KCO2 141032Z 02005KT 00/M00 A3015 RMK A01 T00041002  RH  096%=      5-min Rain = 0
KCO2 141033Z 02005KT 00/M00 A3015 RMK A01 T00031003  RH  096%=      5-min Rain = 0
KCO2 141034Z 02005KT 00/M00 A3015 RMK A01 T00021004  RH  096%=      5-min Rain = 0
KCO2 141035Z 01006KT 00/M01 A3016 RMK A01 T00011005  RH  096%=      5-min Rain = 0
KCO2 141036Z 02005KT 00/M01 A3016 RMK A01 T00011006  RH  095%=      5-min Rain = 0
KCO2 141037Z 02006KT 00/01 A3016 RMK A01 T00-000-7  RH  095%=      5-min Rain = 0
KCO2 141038Z 02006KT M00/M01 A3016 RMK A01 T10011007  RH  095%=      5-min Rain = 0
KCO2 141039Z 02006KT M00/M01 A3016 RMK A01 T10011007  RH  095%=      5-min Rain = 0
KCO2 141040Z 02006KT M00/M01 A3016 RMK A01 T10011008  RH  095%=      5-min Rain = 0
KCO2 141041Z 02006KT M00/M01 A3016 RMK A01 T10011008  RH  095%=      5-min Rain = 0
KCO2 141042Z 01006KT M00/M01 A3016 RMK A01 T10011008  RH  096%=      5-min Rain = 0
KCO2 141043Z 01006KT 00/01 A3016 RMK A01 T00-000-6  RH  096%=      5-min Rain = 0
KCO2 141044Z 01006KT 00/01 A3016 RMK A01 T000000-6  RH  096%=      5-min Rain = 0
KCO2 141045Z 01006KT 00/M01 A3016 RMK A01 T00011006  RH  096%=      5-min Rain = 0
KCO2 141046Z 01006KT 00/M01 A3016 RMK A01 T00011005  RH  096%=      5-min Rain = 0
KCO2 141047Z 00006KT 00/M01 A3016 RMK A01 T00011005  RH  095%=      5-min Rain = 0
KCO2 141048Z 00006KT 00/M01 A3016 RMK A01 T00021005  RH  095%=      5-min Rain = 0
KCO2 141049Z 00007KT 00/M00 A3016 RMK A01 T00021004  RH  095%=      5-min Rain = 0
KCO2 141050Z 01007KT 00/M00 A3016 RMK A01 T00031004  RH  095%=      5-min Rain = 0
KCO2 141051Z 00007KT 00/M00 A3016 RMK A01 T00041004  RH  095%=      5-min Rain = 0
KCO2 141052Z 00008KT 00/M00 A3016 RMK A01 T00041003  RH  095%=      5-min Rain = 0
KCO2 141053Z 00007KT 01/M00 A3016 RMK A01 T00051003  RH  095%=      5-min Rain = 0
KCO2 141054Z 00007KT 01/M00 A3016 RMK A01 T00051003  RH  094%=      5-min Rain = 0
KCO2 141055Z 00007KT 01/M00 A3016 RMK A01 T00051003  RH  094%=      5-min Rain = 0
KCO2 141056Z 00008KT 01/M00 A3016 RMK A01 T00051004  RH  094%=      5-min Rain = 0
KCO2 141057Z 36007KT 01/M00 A3016 RMK A01 T00051004  RH  094%=      5-min Rain = 0
KCO2 141058Z 00007KT 01/M00 A3016 RMK A01 T00051004  RH  094%=      5-min Rain = 0
KCO2 141059Z 00007KT 01/M00 A3016 RMK A01 T00051004  RH  094%=      5-min Rain = 0
KCO2 141100Z 00006KT 01/M00 A3016 RMK A01 T00051004  RH  094%=      5-min Rain = 0
KCO2 141101Z 36007KT 01/M00 A3016 RMK A01 T00051004  RH  094%=      5-min Rain = 0
KCO2 141102Z 00007KT 01/M00 A3017 RMK A01 T00051004  RH  094%=      5-min Rain = 0
KCO2 141103Z 00006KT 01/M00 A3017 RMK A01 T00051004  RH  094%=      5-min Rain = 0
KCO2 141104Z 00007KT 01/M00 A3017 RMK A01 T00051004  RH  094%=      5-min Rain = 0
KCO2 141105Z 00007KT 01/M00 A3017 RMK A01 T00051004  RH  094%=      5-min Rain = 0
KCO2 141106Z 00007KT 01/M00 A3017 RMK A01 T00051004  RH  093%=      5-min Rain = 0
KCO2 141107Z 00007KT 01/M01 A3017 RMK A01 T00051005  RH  093%=      5-min Rain = 0
KCO2 141108Z 36008KT 01/M01 A3017 RMK A01 T00051005  RH  093%=      5-min Rain = 0
KCO2 141109Z 00008KT 00/M01 A3017 RMK A01 T00041005  RH  093%=      5-min Rain = 0
KCO2 141110Z 00008KT 01/M01 A3017 RMK A01 T00051005  RH  093%=      5-min Rain = 0
KCO2 141111Z 36008KT 01/M01 A3017 RMK A01 T00051005  RH  093%=      5-min Rain = 0
KCO2 141112Z 36007KT 00/M01 A3017 RMK A01 T00041005  RH  093%=      5-min Rain = 0
KCO2 141113Z 36008KT 00/M01 A3017 RMK A01 T00041006  RH  093%=      5-min Rain = 0
KCO2 141114Z 36007KT 00/M01 A3017 RMK A01 T00041006  RH  093%=      5-min Rain = 0
KCO2 141115Z 36007KT 00/M01 A3017 RMK A01 T00041006  RH  094%=      5-min Rain = 0
KCO2 141116Z 36007KT 00/M01 A3017 RMK A01 T00031006  RH  094%=      5-min Rain = 0
KCO2 141117Z 36007KT 00/M01 A3017 RMK A01 T00031006  RH  094%=      5-min Rain = 0
KCO2 141118Z 00006KT 00/M01 A3017 RMK A01 T00031006  RH  094%=      5-min Rain = 0
KCO2 141119Z 00007KT 00/M01 A3017 RMK A01 T00031007  RH  094%=      5-min Rain = 0
KCO2 141120Z 01007KT 00/M01 A3017 RMK A01 T00021007  RH  094%=      5-min Rain = 0
KCO2 141121Z 01006KT 00/M01 A3017 RMK A01 T00021006  RH  094%=      5-min Rain = 0
KCO2 141122Z 00007KT 00/M01 A3017 RMK A01 T00021006  RH  094%=      5-min Rain = 0
KCO2 141123Z 00007KT 00/M01 A3017 RMK A01 T00021006  RH  094%=      5-min Rain = 0
KCO2 141124Z 00006KT 00/M01 A3017 RMK A01 T00021006  RH  094%=      5-min Rain = 0
KCO2 141125Z 00006KT 00/M01 A3017 RMK A01 T00021006  RH  094%=      5-min Rain = 0
KCO2 141126Z 01006KT 00/M01 A3017 RMK A01 T00021006  RH  094%=      5-min Rain = 0
KCO2 141127Z 01007KT 00/M01 A3017 RMK A01 T00021006  RH  094%=      5-min Rain = 0
KCO2 141128Z 01006KT 00/M01 A3017 RMK A01 T00021006  RH  094%=      5-min Rain = 0
KCO2 141129Z 00007KT 00/M01 A3017 RMK A01 T00021006  RH  094%=      5-min Rain = 0
KCO2 141130Z 01007KT 00/M01 A3017 RMK A01 T00021006  RH  094%=      5-min Rain = 0
KCO2 141131Z 00007KT 00/M01 A3017 RMK A01 T00021006  RH  094%=      5-min Rain = 0
KCO2 141132Z 00008KT 00/M01 A3017 RMK A01 T00021006  RH  094%=      5-min Rain = 0
KCO2 141133Z 00008KT 00/M01 A3017 RMK A01 T00021006  RH  094%=      5-min Rain = 0
KCO2 141134Z 36008KT 00/M01 A3017 RMK A01 T00031005  RH  094%=      5-min Rain = 0
KCO2 141135Z 00008KT 00/M01 A3017 RMK A01 T00031005  RH  094%=      5-min Rain = 0
KCO2 141136Z 36008KT 00/M01 A3018 RMK A01 T00021006  RH  094%=      5-min Rain = 0
KCO2 141137Z 36008KT 00/M01 A3018 RMK A01 T00021006  RH  094%=      5-min Rain = 0
KCO2 141138Z 36008KT 00/M01 A3018 RMK A01 T00021006  RH  094%=      5-min Rain = 0
KCO2 141139Z 36008KT 00/M01 A3018 RMK A01 T00021006  RH  094%=      5-min Rain = 0
KCO2 141140Z 36009KT 00/M01 A3018 RMK A01 T00021006  RH  094%=      5-min Rain = 0
KCO2 141141Z 36008KT 00/M01 A3018 RMK A01 T00021006  RH  094%=      5-min Rain = 0
KCO2 141142Z 36008KT 00/M01 A3018 RMK A01 T00021006  RH  094%=      5-min Rain = 0
KCO2 141143Z 36009KT 00/M01 A3018 RMK A01 T00021006  RH  094%=      5-min Rain = 0
KCO2 141144Z 00008KT 00/M01 A3018 RMK A01 T00021006  RH  094%=      5-min Rain = 0
KCO2 141145Z 36007KT 00/M01 A3018 RMK A01 T00021006  RH  094%=      5-min Rain = 0
KCO2 141146Z 00007KT 00/M01 A3018 RMK A01 T00021006  RH  094%=      5-min Rain = 0
KCO2 141147Z 36008KT 00/M01 A3018 RMK A01 T00021006  RH  094%=      5-min Rain = 0
KCO2 141148Z 00007KT 00/M01 A3018 RMK A01 T00021006  RH  094%=      5-min Rain = 0
KCO2 141149Z 00008KT 00/M01 A3019 RMK A01 T00011007  RH  094%=      5-min Rain = 0
KCO2 141150Z 00008KT 00/M01 A3019 RMK A01 T00011007  RH  094%=      5-min Rain = 0
KCO2 141151Z 36008KT 00/M01 A3019 RMK A01 T00011007  RH  095%=      5-min Rain = 0
KCO2 141152Z 36008KT 00/M01 A3019 RMK A01 T00011007  RH  095%=      5-min Rain = 0
KCO2 141153Z 36008KT 00/M01 A3019 RMK A01 T00011007  RH  095%=      5-min Rain = 0
KCO2 141154Z 36008KT 00/M01 A3019 RMK A01 T00011007  RH  095%=      5-min Rain = 0
KCO2 141155Z 36007KT 00/M01 A3019 RMK A01 T00011007  RH  095%=      5-min Rain = 0
KCO2 141156Z 36007KT 00/M01 A3019 RMK A01 T00011007  RH  095%=      5-min Rain = 0
KCO2 141157Z 00008KT 00/M01 A3019 RMK A01 T00011006  RH  095%=      5-min Rain = 0
KCO2 141158Z 00008KT 00/M01 A3019 RMK A01 T00011006  RH  095%=      5-min Rain = 0
KCO2 141159Z 00008KT 00/M01 A3019 RMK A01 T00021005  RH  095%=      5-min Rain = 0
KCO2 141200Z 01008KT 00/M00 A3019 RMK A01 T00031004  RH  095%=      5-min Rain = 0
KCO2 141201Z 01009KT 00/M00 A3019 RMK A01 T00041004  RH  095%=      5-min Rain = 0
KCO2 141202Z 01008KT 01/M00 A3019 RMK A01 T00051003  RH  095%=      5-min Rain = 0
KCO2 141203Z 01008KT 01/M00 A3019 RMK A01 T00051002  RH  094%=      5-min Rain = 0
KCO2 141204Z 01008KT 01/M00 A3019 RMK A01 T00061002  RH  094%=      5-min Rain = 0
KCO2 141205Z 02009KT 01/M00 A3019 RMK A01 T00071001  RH  094%=      5-min Rain = 0
KCO2 141206Z 02009KT 01/00 A3019 RMK A01 T000800-0  RH  094%=      5-min Rain = 0
KCO2 141207Z 02009KT 01/00 A302 RMK A01 T00090001  RH  094%=      5-min Rain = 0
KCO2 141208Z 02009KT 01/00 A302 RMK A01 T00100000  RH  094%=      5-min Rain = 0
KCO2 141209Z 02009KT 01/00 A302 RMK A01 T00100001  RH  093%=      5-min Rain = 0
KCO2 141210Z 02009KT 01/00 A302 RMK A01 T00110001  RH  093%=      5-min Rain = 0
KCO2 141211Z 02009KT 01/00 A302 RMK A01 T00120002  RH  093%=      5-min Rain = 0
KCO2 141212Z 02010KT 01/00 A302 RMK A01 T00120002  RH  093%=      5-min Rain = 0
KCO2 141213Z 02009KT 01/00 A302 RMK A01 T00130002  RH  092%=      5-min Rain = 0
KCO2 141214Z 02010KT 01/00 A302 RMK A01 T00130002  RH  092%=      5-min Rain = 0
KCO2 141215Z 02010KT 01/00 A302 RMK A01 T00140002  RH  092%=      5-min Rain = 0
KCO2 141216Z 02008KT 01/00 A302 RMK A01 T00140002  RH  092%=      5-min Rain = 0
KCO2 141217Z 01009KT 01/00 A302 RMK A01 T00140002  RH  092%=      5-min Rain = 0
KCO2 141218Z 02009KT 01/00 A302 RMK A01 T00140002  RH  092%=      5-min Rain = 0
KCO2 141219Z 02009KT 01/00 A302 RMK A01 T00140002  RH  092%=      5-min Rain = 0
KCO2 141220Z 01009KT 01/00 A302 RMK A01 T00140002  RH  092%=      5-min Rain = 0
KCO2 141221Z 01009KT 02/00 A302 RMK A01 T00150002  RH  091%=      5-min Rain = 0
KCO2 141222Z 01010KT 02/00 A302 RMK A01 T00150002  RH  091%=      5-min Rain = 0
KCO2 141223Z 01010KT 02/00 A302 RMK A01 T00150002  RH  091%=      5-min Rain = 0
KCO2 141224Z 01010KT 02/00 A302 RMK A01 T00150003  RH  091%=      5-min Rain = 0
KCO2 141225Z 01009KT 02/00 A3021 RMK A01 T00160003  RH  091%=      5-min Rain = 0
KCO2 141226Z 01009KT 02/00 A3021 RMK A01 T00160003  RH  091%=      5-min Rain = 0
KCO2 141227Z 01009KT 02/00 A3021 RMK A01 T00160002  RH  091%=      5-min Rain = 0
KCO2 141228Z 01009KT 02/00 A3021 RMK A01 T00160002  RH  091%=      5-min Rain = 0
KCO2 141229Z 01009KT 02/00 A3021 RMK A01 T00160002  RH  091%=      5-min Rain = 0
KCO2 141230Z 01009KT 02/00 A3021 RMK A01 T00160003  RH  091%=      5-min Rain = 0
KCO2 141231Z 01009KT 02/00 A3021 RMK A01 T00160003  RH  091%=      5-min Rain = 0
KCO2 141232Z 01010KT 02/00 A3021 RMK A01 T00160002  RH  091%=      5-min Rain = 0
KCO2 141233Z 01010KT 02/00 A3021 RMK A01 T00160002  RH  091%=      5-min Rain = 0
KCO2 141234Z 01008KT 02/00 A3021 RMK A01 T00150002  RH  091%=      5-min Rain = 0
KCO2 141235Z 01009KT 02/00 A3021 RMK A01 T00150002  RH  091%=      5-min Rain = 0
KCO2 141236Z 01008KT 02/00 A3021 RMK A01 T00150002  RH  091%=      5-min Rain = 0
KCO2 141237Z 01009KT 02/00 A3022 RMK A01 T00150002  RH  091%=      5-min Rain = 0
KCO2 141238Z 01008KT 02/00 A3022 RMK A01 T00150002  RH  091%=      5-min Rain = 0
KCO2 141239Z 01008KT 02/00 A3022 RMK A01 T00150002  RH  091%=      5-min Rain = 0
KCO2 141240Z 01008KT 02/00 A3022 RMK A01 T00150002  RH  091%=      5-min Rain = 0
KCO2 141241Z 01008KT 02/00 A3022 RMK A01 T00150002  RH  091%=      5-min Rain = 0
KCO2 141242Z 01009KT 02/00 A3022 RMK A01 T00150002  RH  091%=      5-min Rain = 0
KCO2 141243Z 01008KT 02/00 A3022 RMK A01 T00150001  RH  091%=      5-min Rain = 0
KCO2 141244Z 01008KT 02/00 A3022 RMK A01 T00150001  RH  091%=      5-min Rain = 0
KCO2 141245Z 01008KT 02/00 A3022 RMK A01 T00150001  RH  091%=      5-min Rain = 0
KCO2 141246Z 02007KT 02/00 A3022 RMK A01 T00150001  RH  091%=      5-min Rain = 0
KCO2 141247Z 02008KT 02/00 A3022 RMK A01 T00150001  RH  091%=      5-min Rain = 0
KCO2 141248Z 02008KT 02/00 A3022 RMK A01 T00150001  RH  091%=      5-min Rain = 0
KCO2 141249Z 01007KT 02/00 A3022 RMK A01 T00150001  RH  091%=      5-min Rain = 0
KCO2 141250Z 01007KT 01/00 A3022 RMK A01 T00140000  RH  091%=      5-min Rain = 0
KCO2 141251Z 02007KT 01/00 A3023 RMK A01 T00140000  RH  091%=      5-min Rain = 0
KCO2 141252Z 01008KT 01/00 A3023 RMK A01 T00140000  RH  091%=      5-min Rain = 0
KCO2 141253Z 02007KT 01/00 A3023 RMK A01 T00130000  RH  091%=      5-min Rain = 0
KCO2 141254Z 01006KT 01/00 A3023 RMK A01 T00130000  RH  091%=      5-min Rain = 0
KCO2 141255Z 01006KT 01/00 A3023 RMK A01 T00130000  RH  091%=      5-min Rain = 0
KCO2 141256Z 02007KT 01/00 A3023 RMK A01 T001300-0  RH  091%=      5-min Rain = 0
KCO2 141257Z 02006KT 01/00 A3023 RMK A01 T001300-0  RH  091%=      5-min Rain = 0
KCO2 141258Z 02006KT 01/M00 A3023 RMK A01 T00121001  RH  091%=      5-min Rain = 0
KCO2 141259Z 01006KT 01/M00 A3023 RMK A01 T00121001  RH  091%=      5-min Rain = 0
KCO2 141300Z 02007KT 01/M00 A3023 RMK A01 T00121001  RH  091%=      5-min Rain = 0
KCO2 141301Z 01006KT 01/M00 A3023 RMK A01 T00121001  RH  091%=      5-min Rain = 0
KCO2 141302Z 01006KT 01/M00 A3024 RMK A01 T00121001  RH  091%=      5-min Rain = 0
KCO2 141303Z 01006KT 01/M00 A3024 RMK A01 T00121001  RH  091%=      5-min Rain = 0
KCO2 141304Z 01006KT 01/M00 A3024 RMK A01 T00111002  RH  091%=      5-min Rain = 0
KCO2 141305Z 01006KT 01/M00 A3024 RMK A01 T00111002  RH  091%=      5-min Rain = 0
KCO2 141306Z 01006KT 01/M00 A3024 RMK A01 T00111002  RH  091%=      5-min Rain = 0
KCO2 141307Z 01006KT 01/M00 A3024 RMK A01 T00111002  RH  091%=      5-min Rain = 0
KCO2 141308Z 01006KT 01/M00 A3024 RMK A01 T00111002  RH  092%=      5-min Rain = 0
KCO2 141309Z 02005KT 01/M00 A3024 RMK A01 T00101002  RH  092%=      5-min Rain = 0
KCO2 141310Z 02005KT 01/M00 A3024 RMK A01 T00101002  RH  092%=      5-min Rain = 0
KCO2 141311Z 02005KT 01/M00 A3024 RMK A01 T00101002  RH  092%=      5-min Rain = 0
KCO2 141312Z 02004KT 01/M00 A3024 RMK A01 T00101002  RH  092%=      5-min Rain = 0
KCO2 141313Z 02005KT 01/M00 A3024 RMK A01 T00091003  RH  092%=      5-min Rain = 0
KCO2 141314Z 01005KT 01/M00 A3024 RMK A01 T00091003  RH  092%=      5-min Rain = 0
KCO2 141315Z 01005KT 01/M00 A3024 RMK A01 T00081004  RH  092%=      5-min Rain = 0
KCO2 141316Z 01004KT 01/M00 A3024 RMK A01 T00081004  RH  092%=      5-min Rain = 0
KCO2 141317Z 02005KT 01/M00 A3024 RMK A01 T00081004  RH  092%=      5-min Rain = 0
KCO2 141318Z 01005KT 01/M00 A3024 RMK A01 T00081004  RH  092%=      5-min Rain = 0
KCO2 141319Z 02005KT 01/M00 A3024 RMK A01 T00081004  RH  092%=      5-min Rain = 0
KCO2 141320Z 02006KT 01/M00 A3024 RMK A01 T00081004  RH  092%=      5-min Rain = 0
KCO2 141321Z 02006KT 01/M00 A3024 RMK A01 T00081004  RH  092%=      5-min Rain = 0
KCO2 141322Z 02005KT 01/M00 A3025 RMK A01 T00081004  RH  092%=      5-min Rain = 0
KCO2 141323Z 02006KT 01/M00 A3025 RMK A01 T00081004  RH  092%=      5-min Rain = 0
KCO2 141324Z 02006KT 01/M00 A3025 RMK A01 T00081004  RH  092%=      5-min Rain = 0
KCO2 141325Z 02006KT 01/M00 A3025 RMK A01 T00081003  RH  092%=      5-min Rain = 0
KCO2 141326Z 02007KT 01/M00 A3025 RMK A01 T00091003  RH  092%=      5-min Rain = 0
KCO2 141327Z 02007KT 01/M00 A3025 RMK A01 T00091004  RH  092%=      5-min Rain = 0
KCO2 141328Z 02006KT 01/M00 A3025 RMK A01 T00091003  RH  091%=      5-min Rain = 0
KCO2 141329Z 02007KT 01/M00 A3025 RMK A01 T00091003  RH  091%=      5-min Rain = 0
KCO2 141330Z 02007KT 01/M00 A3025 RMK A01 T00101003  RH  091%=      5-min Rain = 0
KCO2 141331Z 01007KT 01/M00 A3025 RMK A01 T00101003  RH  091%=      5-min Rain = 0
KCO2 141332Z 01008KT 01/M00 A3025 RMK A01 T00101003  RH  091%=      5-min Rain = 0
KCO2 141333Z 01008KT 01/M00 A3025 RMK A01 T00111003  RH  091%=      5-min Rain = 0
KCO2 141334Z 02008KT 01/M00 A3025 RMK A01 T00111002  RH  091%=      5-min Rain = 0
KCO2 141335Z 01009KT 01/M00 A3025 RMK A01 T00121002  RH  090%=      5-min Rain = 0
KCO2 141336Z 01007KT 01/M00 A3025 RMK A01 T00121002  RH  090%=      5-min Rain = 0
KCO2 141337Z 01008KT 01/M00 A3025 RMK A01 T00121002  RH  090%=      5-min Rain = 0
KCO2 141338Z 01008KT 01/M00 A3026 RMK A01 T00131002  RH  090%=      5-min Rain = 0
KCO2 141339Z 01008KT 01/M00 A3026 RMK A01 T00131002  RH  090%=      5-min Rain = 0
KCO2 141340Z 01009KT 01/M00 A3026 RMK A01 T00141002  RH  089%=      5-min Rain = 0
KCO2 141341Z 01009KT 02/M00 A3026 RMK A01 T00151001  RH  089%=      5-min Rain = 0
KCO2 141342Z 01009KT 02/M00 A3026 RMK A01 T00151001  RH  089%=      5-min Rain = 0
KCO2 141343Z 01010KT 02/M00 A3026 RMK A01 T00151001  RH  089%=      5-min Rain = 0
KCO2 141344Z 01009KT 02/M00 A3026 RMK A01 T00161001  RH  089%=      5-min Rain = 0
KCO2 141345Z 01009KT 02/M00 A3026 RMK A01 T00161001  RH  089%=      5-min Rain = 0
KCO2 141346Z 01009KT 02/M00 A3026 RMK A01 T00161001  RH  088%=      5-min Rain = 0
KCO2 141347Z 01009KT 02/M00 A3026 RMK A01 T00171001  RH  088%=      5-min Rain = 0
KCO2 141348Z 01009KT 02/M00 A3026 RMK A01 T00171001  RH  088%=      5-min Rain = 0
KCO2 141349Z 01008KT 02/M00 A3026 RMK A01 T00171001  RH  088%=      5-min Rain = 0
KCO2 141350Z 01009KT 02/M00 A3026 RMK A01 T00171001  RH  088%=      5-min Rain = 0
KCO2 141351Z 01009KT 02/00 A3027 RMK A01 T001700-0  RH  088%=      5-min Rain = 0
KCO2 141352Z 01008KT 02/00 A3027 RMK A01 T001800-0  RH  088%=      5-min Rain = 0
KCO2 141353Z 01010KT 02/00 A3027 RMK A01 T001800-0  RH  088%=      5-min Rain = 0
KCO2 141354Z 01010KT 02/00 A3027 RMK A01 T001800-0  RH  087%=      5-min Rain = 0
KCO2 141355Z 01009KT 02/00 A3027 RMK A01 T001900-0  RH  087%=      5-min Rain = 0
KCO2 141356Z 01008KT 02/00 A3027 RMK A01 T00190000  RH  087%=      5-min Rain = 0
KCO2 141357Z 01009KT 02/00 A3027 RMK A01 T00200000  RH  087%=      5-min Rain = 0
KCO2 141358Z 01010KT 02/00 A3027 RMK A01 T00200000  RH  087%=      5-min Rain = 0
KCO2 141359Z 01009KT 02/00 A3027 RMK A01 T00210000  RH  086%=      5-min Rain = 0
KCO2 141400Z 01010KT 02/00 A3027 RMK A01 T002200-0  RH  085%=      5-min Rain = 0
KCO2 141401Z 01010KT 02/00 A3027 RMK A01 T00230000  RH  085%=      5-min Rain = 0
KCO2 141402Z 02009KT 02/00 A3027 RMK A01 T002300-0  RH  084%=      5-min Rain = 0
KCO2 141403Z 01010KT 02/00 A3028 RMK A01 T002400-0  RH  084%=      5-min Rain = 0
KCO2 141404Z 01010KT 02/M00 A3028 RMK A01 T00241001  RH  084%=      5-min Rain = 0
KCO2 141405Z 01010KT 03/M00 A3028 RMK A01 T00251001  RH  083%=      5-min Rain = 0
KCO2 141406Z 01010KT 03/M00 A3028 RMK A01 T00261001  RH  082%=      5-min Rain = 0
KCO2 141407Z 02011KT 03/M00 A3028 RMK A01 T00261002  RH  082%=      5-min Rain = 0
KCO2 141408Z 01010KT 03/M00 A3028 RMK A01 T00271002  RH  081%=      5-min Rain = 0
KCO2 141409Z 01011KT 03/M00 A3028 RMK A01 T00281001  RH  081%=      5-min Rain = 0
KCO2 141410Z 01011KT 03/M00 A3028 RMK A01 T00281001  RH  081%=      5-min Rain = 0
KCO2 141411Z 01011KT 03/M00 A3028 RMK A01 T00291001  RH  081%=      5-min Rain = 0
KCO2 141412Z 01010KT 03/M00 A3028 RMK A01 T00291002  RH  080%=      5-min Rain = 0
KCO2 141413Z 02011KT 03/M00 A3028 RMK A01 T00301002  RH  080%=      5-min Rain = 0
KCO2 141414Z 02011KT 03/M00 A3028 RMK A01 T00301002  RH  080%=      5-min Rain = 0
KCO2 141415Z 02010KT 03/M00 A3029 RMK A01 T00311002  RH  079%=      5-min Rain = 0
KCO2 141416Z 02009KT 03/M00 A3029 RMK A01 T00321002  RH  079%=      5-min Rain = 0
KCO2 141417Z 01011KT 03/M00 A3029 RMK A01 T00321002  RH  078%=      5-min Rain = 0
KCO2 141418Z 01010KT 03/M00 A3029 RMK A01 T00321002  RH  078%=      5-min Rain = 0
KCO2 141419Z 02011KT 03/M00 A3029 RMK A01 T00331003  RH  077%=      5-min Rain = 0
KCO2 141420Z 01011KT 03/M00 A3029 RMK A01 T00331003  RH  077%=      5-min Rain = 0
KCO2 141421Z 02010KT 03/M00 A3029 RMK A01 T00341003  RH  077%=      5-min Rain = 0
KCO2 141422Z 02011KT 04/M00 A3029 RMK A01 T00351004  RH  076%=      5-min Rain = 0
KCO2 141423Z 02011KT 04/M00 A3029 RMK A01 T00361004  RH  075%=      5-min Rain = 0
KCO2 141424Z 02013KT 04/M01 A3029 RMK A01 T00371005  RH  074%=      5-min Rain = 0
KCO2 141425Z 01010KT 04/M01 A3029 RMK A01 T00371006  RH  073%=      5-min Rain = 0
KCO2 141426Z 01011KT 04/M00 A3029 RMK A01 T00381004  RH  074%=      5-min Rain = 0
KCO2 141427Z 02011KT 04/M01 A303 RMK A01 T00391005  RH  073%=      5-min Rain = 0
KCO2 141428Z 02011KT 04/M01 A303 RMK A01 T00401006  RH  072%=      5-min Rain = 0
KCO2 141429Z 02009KT 04/M01 A303 RMK A01 T00401005  RH  072%=      5-min Rain = 0
KCO2 141430Z 02012KT 04/M00 A303 RMK A01 T00421004  RH  072%=      5-min Rain = 0
KCO2 141431Z 02011KT 04/M01 A303 RMK A01 T00421005  RH  071%=      5-min Rain = 0
KCO2 141432Z 02010KT 04/M01 A303 RMK A01 T00431006  RH  071%=      5-min Rain = 0
KCO2 141433Z 01011KT 04/M01 A303 RMK A01 T00431006  RH  071%=      5-min Rain = 0
KCO2 141434Z 02012KT 04/M01 A303 RMK A01 T00431008  RH  069%=      5-min Rain = 0
KCO2 141435Z 01010KT 04/M01 A303 RMK A01 T00431008  RH  069%=      5-min Rain = 0
KCO2 141436Z 02013KT 04/M01 A303 RMK A01 T00441007  RH  069%=      5-min Rain = 0
KCO2 141437Z 02013KT 04/M01 A303 RMK A01 T00441010  RH  068%=      5-min Rain = 0
KCO2 141438Z 02011KT 05/M01 A303 RMK A01 T00451009  RH  068%=      5-min Rain = 0
KCO2 141439Z 02011KT 05/M01 A3031 RMK A01 T00451009  RH  068%=      5-min Rain = 0
KCO2 141440Z 02014KT 05/M01 A3031 RMK A01 T00461009  RH  068%=      5-min Rain = 0
KCO2 141441Z 02011G16KT 05/M01 A3031 RMK A01 T00461010  RH  067%=      5-min Rain = 0
KCO2 141442Z 02013KT 05/M01 A3031 RMK A01 T00471010  RH  066%=      5-min Rain = 0
KCO2 141443Z 02014KT 05/M01 A3031 RMK A01 T00471011  RH  066%=      5-min Rain = 0
KCO2 141444Z 02013KT 05/M01 A3031 RMK A01 T00481011  RH  066%=      5-min Rain = 0
KCO2 141445Z 02014KT 05/M01 A3031 RMK A01 T00491011  RH  065%=      5-min Rain = 0
KCO2 141446Z 02014KT 05/M01 A3031 RMK A01 T00491012  RH  064%=      5-min Rain = 0
KCO2 141447Z 02012KT 05/M01 A3031 RMK A01 T00491012  RH  064%=      5-min Rain = 0
KCO2 141448Z 02011KT 05/M01 A3031 RMK A01 T00501011  RH  065%=      5-min Rain = 0
KCO2 141449Z 02014KT 05/M01 A3031 RMK A01 T00511010  RH  064%=      5-min Rain = 0
KCO2 141450Z 02014KT 05/M01 A3031 RMK A01 T00511013  RH  063%=      5-min Rain = 0
KCO2 141451Z 02014KT 05/M01 A3031 RMK A01 T00511014  RH  063%=      5-min Rain = 0
KCO2 141452Z 02013KT 05/M01 A3031 RMK A01 T00521013  RH  063%=      5-min Rain = 0
KCO2 141453Z 02013KT 05/M01 A3032 RMK A01 T00531013  RH  062%=      5-min Rain = 0
KCO2 141454Z 02013KT 05/M01 A3032 RMK A01 T00531013  RH  062%=      5-min Rain = 0
KCO2 141455Z 03014KT 05/M01 A3032 RMK A01 T00541013  RH  062%=      5-min Rain = 0
KCO2 141456Z 02011KT 06/M01 A3032 RMK A01 T00551014  RH  061%=      5-min Rain = 0
KCO2 141457Z 02012KT 06/M01 A3032 RMK A01 T00561012  RH  061%=      5-min Rain = 0
KCO2 141458Z 02015KT 06/M01 A3032 RMK A01 T00561014  RH  060%=      5-min Rain = 0
KCO2 141459Z 03012KT 06/M02 A3032 RMK A01 T00571015  RH  060%=      5-min Rain = 0
KCO2 141500Z 03010KT 06/M01 A3032 RMK A01 T00571013  RH  061%=      5-min Rain = 0
KCO2 141501Z 02013KT 06/M01 A3032 RMK A01 T00601012  RH  060%=      5-min Rain = 0
KCO2 141502Z 03013KT 06/M02 A3032 RMK A01 T00601015  RH  058%=      5-min Rain = 0
KCO2 141503Z 02013KT 06/M02 A3033 RMK A01 T00601017  RH  058%=      5-min Rain = 0
KCO2 141504Z 02016KT 06/M02 A3033 RMK A01 T00601018  RH  057%=      5-min Rain = 0
KCO2 141505Z 03014KT 06/M02 A3033 RMK A01 T00601021  RH  056%=      5-min Rain = 0
KCO2 141506Z 02015KT 06/M02 A3033 RMK A01 T00601019  RH  057%=      5-min Rain = 0
KCO2 141507Z 02013KT 06/M02 A3033 RMK A01 T00601018  RH  057%=      5-min Rain = 0
KCO2 141508Z 02013KT 06/M02 A3033 RMK A01 T00621018  RH  057%=      5-min Rain = 0
KCO2 141509Z 02014KT 06/M02 A3033 RMK A01 T00631019  RH  056%=      5-min Rain = 0
KCO2 141510Z 02014KT 06/M02 A3033 RMK A01 T00631021  RH  055%=      5-min Rain = 0
KCO2 141511Z 03012KT 06/M02 A3033 RMK A01 T00631021  RH  055%=      5-min Rain = 0
KCO2 141512Z 04012KT 06/M02 A3033 RMK A01 T00641018  RH  056%=      5-min Rain = 0
KCO2 141513Z 03011KT 07/M02 A3033 RMK A01 T00661019  RH  055%=      5-min Rain = 0
KCO2 141514Z 03010G15KT 07/M02 A3033 RMK A01 T00671017  RH  055%=      5-min Rain = 0
KCO2 141515Z 03014KT 07/M02 A3034 RMK A01 T00681019  RH  054%=      5-min Rain = 0
KCO2 141516Z 03013KT 07/M02 A3034 RMK A01 T00681021  RH  053%=      5-min Rain = 0
KCO2 141517Z 03014KT 07/M02 A3034 RMK A01 T00681022  RH  053%=      5-min Rain = 0
KCO2 141518Z 03010KT 07/M02 A3034 RMK A01 T00681021  RH  053%=      5-min Rain = 0
KCO2 141519Z 03013KT 07/M02 A3034 RMK A01 T00701019  RH  053%=      5-min Rain = 0
KCO2 141520Z 02014KT 07/M02 A3034 RMK A01 T00701022  RH  052%=      5-min Rain = 0
KCO2 141521Z 02013KT 07/M02 A3034 RMK A01 T00701022  RH  052%=      5-min Rain = 0
KCO2 141522Z 03010KT 07/M02 A3034 RMK A01 T00691024  RH  052%=      5-min Rain = 0
KCO2 141523Z 04010KT 07/M02 A3034 RMK A01 T00711020  RH  052%=      5-min Rain = 0
KCO2 141524Z 03014KT 07/M02 A3034 RMK A01 T00731023  RH  050%=      5-min Rain = 0
KCO2 141525Z 03014KT 07/M03 A3034 RMK A01 T00721027  RH  049%=      5-min Rain = 0
KCO2 141526Z 03012KT 07/M03 A3034 RMK A01 T00711027  RH  050%=      5-min Rain = 0
KCO2 141527Z 04013KT 07/M02 A3034 RMK A01 T00731024  RH  050%=      5-min Rain = 0
KCO2 141528Z 04014G19KT 07/M03 A3034 RMK A01 T00741026  RH  049%=      5-min Rain = 0
KCO2 141529Z 04014KT 08/M03 A3034 RMK A01 T00751025  RH  049%=      5-min Rain = 0
KCO2 141530Z 04013KT 08/M03 A3034 RMK A01 T00771027  RH  048%=      5-min Rain = 0
KCO2 141531Z 03013KT 08/M03 A3034 RMK A01 T00761026  RH  048%=      5-min Rain = 0
KCO2 141532Z 03016KT 08/M03 A3035 RMK A01 T00771028  RH  047%=      5-min Rain = 0
KCO2 141533Z 04016G23KT 08/M03 A3035 RMK A01 T00751032  RH  046%=      5-min Rain = 0
KCO2 141534Z 04016KT 07/M03 A3035 RMK A01 T00741033  RH  046%=      5-min Rain = 0
KCO2 141535Z 04016KT 07/M03 A3035 RMK A01 T00731034  RH  047%=      5-min Rain = 0
KCO2 141536Z 04016KT 07/M03 A3035 RMK A01 T00731034  RH  047%=      5-min Rain = 0
KCO2 141537Z 03015KT 07/M03 A3035 RMK A01 T00731032  RH  047%=      5-min Rain = 0
KCO2 141538Z 03016KT 07/M03 A3035 RMK A01 T00741033  RH  047%=      5-min Rain = 0
KCO2 141539Z 04013KT 08/M03 A3035 RMK A01 T00751033  RH  047%=      5-min Rain = 0
KCO2 141540Z 04017KT 08/M03 A3035 RMK A01 T00761031  RH  046%=      5-min Rain = 0
KCO2 141541Z 04016KT 08/M03 A3035 RMK A01 T00771034  RH  045%=      5-min Rain = 0
KCO2 141542Z 04018G24KT 08/M04 A3035 RMK A01 T00761036  RH  045%=      5-min Rain = 0
KCO2 141543Z 04016KT 08/M04 A3035 RMK A01 T00761036  RH  045%=      5-min Rain = 0
KCO2 141544Z 04015KT 08/M03 A3035 RMK A01 T00761034  RH  045%=      5-min Rain = 0
KCO2 141545Z 04017KT 08/M03 A3036 RMK A01 T00771033  RH  046%=      5-min Rain = 0
KCO2 141546Z 04014KT 08/M04 A3036 RMK A01 T00771035  RH  045%=      5-min Rain = 0
KCO2 141547Z 04015KT 08/M03 A3036 RMK A01 T00771033  RH  045%=      5-min Rain = 0
KCO2 141548Z 05016KT 08/M03 A3036 RMK A01 T00791033  RH  045%=      5-min Rain = 0
KCO2 141549Z 04015KT 08/M03 A3036 RMK A01 T00791034  RH  045%=      5-min Rain = 0
KCO2 141550Z 03014KT 08/M03 A3036 RMK A01 T00811032  RH  045%=      5-min Rain = 0
KCO2 141551Z 04016KT 08/M03 A3036 RMK A01 T00811033  RH  044%=      5-min Rain = 0
KCO2 141552Z 04017KT 08/M03 A3036 RMK A01 T00811034  RH  044%=      5-min Rain = 0
KCO2 141553Z 04015KT 08/M03 A3036 RMK A01 T00801034  RH  044%=      5-min Rain = 0
KCO2 141554Z 04014KT 08/M03 A3036 RMK A01 T00801034  RH  044%=      5-min Rain = 0
KCO2 141555Z 03016KT 08/M03 A3036 RMK A01 T00801033  RH  044%=      5-min Rain = 0
KCO2 141556Z 03017KT 08/M04 A3036 RMK A01 T00801035  RH  044%=      5-min Rain = 0
KCO2 141557Z 04015KT 08/M04 A3036 RMK A01 T00791035  RH  044%=      5-min Rain = 0
KCO2 141558Z 04016KT 08/M04 A3036 RMK A01 T00801035  RH  044%=      5-min Rain = 0
KCO2 141559Z 04014KT 08/M03 A3036 RMK A01 T00801034  RH  044%=      5-min Rain = 0
KCO2 141600Z 03013G18KT 08/M03 A3036 RMK A01 T00821032  RH  044%=      5-min Rain = 0
KCO2 141601Z 03013KT 08/M03 A3037 RMK A01 T00841034  RH  043%=      5-min Rain = 0
KCO2 141602Z 03016KT 08/M03 A3037 RMK A01 T00841033  RH  043%=      5-min Rain = 0
KCO2 141603Z 03015KT 08/M03 A3037 RMK A01 T00841034  RH  043%=      5-min Rain = 0
KCO2 141604Z 03012KT 08/M03 A3037 RMK A01 T00831033  RH  044%=      5-min Rain = 0
KCO2 141605Z 03013KT 09/M03 A3037 RMK A01 T00861030  RH  044%=      5-min Rain = 0
KCO2 141606Z 04016KT 09/M03 A3037 RMK A01 T00881034  RH  042%=      5-min Rain = 0
KCO2 141607Z 04016KT 09/M04 A3037 RMK A01 T00861037  RH  042%=      5-min Rain = 0
KCO2 141608Z 05013KT 09/M04 A3037 RMK A01 T00851037  RH  042%=      5-min Rain = 0
KCO2 141609Z 05012KT 09/M04 A3037 RMK A01 T00861035  RH  042%=      5-min Rain = 0
KCO2 141610Z 04013KT 09/M03 A3037 RMK A01 T00891034  RH  042%=      5-min Rain = 0
KCO2 141611Z 04016KT 09/M04 A3037 RMK A01 T00901036  RH  041%=      5-min Rain = 0
KCO2 141612Z 03019G24KT 09/M04 A3037 RMK A01 T00901039  RH  040%=      5-min Rain = 0
KCO2 141613Z 05015G20KT 09/M04 A3037 RMK A01 T00891040  RH  040%=      5-min Rain = 0
KCO2 141614Z 05011KT 09/M04 A3037 RMK A01 T00901037  RH  040%=      5-min Rain = 0
KCO2 141615Z 05016G21KT 09/M04 A3037 RMK A01 T00921036  RH  040%=      5-min Rain = 0
KCO2 141616Z 03017KT 09/M04 A3037 RMK A01 T00921039  RH  039%=      5-min Rain = 0
KCO2 141617Z 04015G21KT 09/M04 A3037 RMK A01 T00911039  RH  040%=      5-min Rain = 0
KCO2 141618Z 05016KT 09/M04 A3037 RMK A01 T00921038  RH  040%=      5-min Rain = 0
KCO2 141619Z 05018KT 09/M04 A3038 RMK A01 T00921039  RH  040%=      5-min Rain = 0
KCO2 141620Z 05015KT 09/M04 A3037 RMK A01 T00901039  RH  040%=      5-min Rain = 0
KCO2 141621Z 06015KT 09/M04 A3037 RMK A01 T00901038  RH  040%=      5-min Rain = 0
KCO2 141622Z 05012KT 09/M04 A3037 RMK A01 T00911037  RH  040%=      5-min Rain = 0
KCO2 141623Z 05014KT 09/M04 A3038 RMK A01 T00931037  RH  040%=      5-min Rain = 0
KCO2 141624Z 04016KT 09/M04 A3038 RMK A01 T00931037  RH  040%=      5-min Rain = 0
KCO2 141625Z 04012KT 09/M04 A3038 RMK A01 T00931037  RH  040%=      5-min Rain = 0
KCO2 141626Z 05014KT 10/M04 A3037 RMK A01 T00951036  RH  040%=      5-min Rain = 0
KCO2 141627Z 05013KT 10/M04 A3038 RMK A01 T00961037  RH  039%=      5-min Rain = 0
KCO2 141628Z 05013KT 10/M04 A3038 RMK A01 T00961037  RH  039%=      5-min Rain = 0
KCO2 141629Z 05012KT 10/M04 A3037 RMK A01 T00961036  RH  039%=      5-min Rain = 0
KCO2 141630Z 04015KT 10/M04 A3038 RMK A01 T00971036  RH  039%=      5-min Rain = 0
KCO2 141631Z 05014KT 10/M04 A3038 RMK A01 T00971038  RH  039%=      5-min Rain = 0
KCO2 141632Z 06015KT 10/M04 A3038 RMK A01 T00961039  RH  038%=      5-min Rain = 0
KCO2 141633Z 05017KT 10/M04 A3038 RMK A01 T00951040  RH  038%=      5-min Rain = 0
KCO2 141634Z 05015KT 10/M04 A3038 RMK A01 T00961040  RH  038%=      5-min Rain = 0
KCO2 141635Z 05015KT 10/M04 A3038 RMK A01 T00961040  RH  038%=      5-min Rain = 0
KCO2 141636Z 05014KT 10/M04 A3038 RMK A01 T00961038  RH  039%=      5-min Rain = 0
KCO2 141637Z 05013KT 10/M04 A3038 RMK A01 T00981037  RH  039%=      5-min Rain = 0
KCO2 141638Z 05013G18KT 10/M04 A3038 RMK A01 T00991036  RH  038%=      5-min Rain = 0
KCO2 141639Z 06016KT 10/M04 A3038 RMK A01 T01001036  RH  038%=      5-min Rain = 0
KCO2 141640Z 05013KT 10/M04 A3038 RMK A01 T00991038  RH  038%=      5-min Rain = 0
KCO2 141641Z 04014KT 10/M04 A3038 RMK A01 T01001036  RH  038%=      5-min Rain = 0
KCO2 141642Z 03018KT 10/M04 A3038 RMK A01 T01001039  RH  037%=      5-min Rain = 0
KCO2 141643Z 04017G22KT 10/M04 A3038 RMK A01 T00981040  RH  037%=      5-min Rain = 0
KCO2 141644Z 04017KT 10/M04 A3038 RMK A01 T00971040  RH  038%=      5-min Rain = 0
KCO2 141645Z 04014KT 10/M04 A3038 RMK A01 T00971039  RH  038%=      5-min Rain = 0
KCO2 141646Z 04017G23KT 10/M04 A3038 RMK A01 T00991038  RH  038%=      5-min Rain = 0
KCO2 141647Z 04017G22KT 10/M04 A3038 RMK A01 T00991040  RH  037%=      5-min Rain = 0
KCO2 141648Z 04017G22KT 10/M04 A3038 RMK A01 T00981040  RH  037%=      5-min Rain = 0
KCO2 141649Z 05017KT 10/M04 A3038 RMK A01 T00981040  RH  038%=      5-min Rain = 0
KCO2 141650Z 05019KT 10/M04 A3038 RMK A01 T00981041  RH  037%=      5-min Rain = 0
KCO2 141651Z 05016KT 10/M04 A3038 RMK A01 T00961041  RH  038%=      5-min Rain = 0
KCO2 141652Z 05014G19KT 10/M04 A3038 RMK A01 T00981039  RH  038%=      5-min Rain = 0
KCO2 141653Z 05017KT 10/M04 A3038 RMK A01 T01011038  RH  037%=      5-min Rain = 0
KCO2 141654Z 05017G22KT 10/M04 A3038 RMK A01 T01011040  RH  037%=      5-min Rain = 0
KCO2 141655Z 05017KT 10/M04 A3038 RMK A01 T00991040  RH  037%=      5-min Rain = 0
KCO2 141656Z 05018KT 10/M04 A3038 RMK A01 T00971042  RH  037%=      5-min Rain = 0
KCO2 141657Z 04016G22KT 10/M04 A3038 RMK A01 T00961041  RH  038%=      5-min Rain = 0
KCO2 141658Z 04017KT 10/M04 A3038 RMK A01 T00961040  RH  038%=      5-min Rain = 0
KCO2 141659Z 04015KT 10/M04 A3038 RMK A01 T00971039  RH  038%=      5-min Rain = 0
KCO2 141700Z 05017KT 10/M04 A3038 RMK A01 T00981039  RH  038%=      5-min Rain = 0
KCO2 141701Z 05017KT 10/M04 A3038 RMK A01 T00981039  RH  038%=      5-min Rain = 0
KCO2 141702Z 05014KT 10/M04 A3038 RMK A01 T00991039  RH  038%=      5-min Rain = 0
KCO2 141703Z 04014KT 10/M04 A3038 RMK A01 T00991039  RH  037%=      5-min Rain = 0
KCO2 141704Z 04015KT 10/M04 A3038 RMK A01 T01021037  RH  037%=      5-min Rain = 0
KCO2 141705Z 04018KT 10/M04 A3038 RMK A01 T01041038  RH  037%=      5-min Rain = 0
KCO2 141706Z 04013G18KT 10/M04 A3038 RMK A01 T01041039  RH  037%=      5-min Rain = 0
KCO2 141707Z 04015KT 10/M04 A3038 RMK A01 T01041038  RH  037%=      5-min Rain = 0
KCO2 141708Z 05017KT 10/M04 A3038 RMK A01 T01031039  RH  037%=      5-min Rain = 0
KCO2 141709Z 05019KT 10/M04 A3038 RMK A01 T01011040  RH  037%=      5-min Rain = 0
KCO2 141710Z 04018KT 10/M04 A3038 RMK A01 T01011041  RH  037%=      5-min Rain = 0
KCO2 141711Z 04017G22KT 10/M04 A3038 RMK A01 T01011041  RH  037%=      5-min Rain = 0
KCO2 141712Z 05017KT 10/M04 A3038 RMK A01 T01011041  RH  037%=      5-min Rain = 0
KCO2 141713Z 05017KT 10/M04 A3038 RMK A01 T01001042  RH  037%=      5-min Rain = 0
KCO2 141714Z 05011G16KT 10/M04 A3038 RMK A01 T01031039  RH  037%=      5-min Rain = 0
KCO2 141715Z 03015KT 11/M04 A3038 RMK A01 T01071037  RH  036%=      5-min Rain = 0
KCO2 141716Z 05014G19KT 11/M04 A3038 RMK A01 T01071040  RH  035%=      5-min Rain = 0
KCO2 141717Z 04017KT 11/M04 A3038 RMK A01 T01091039  RH  035%=      5-min Rain = 0
KCO2 141718Z 06016KT 11/M04 A3038 RMK A01 T01081041  RH  035%=      5-min Rain = 0
KCO2 141719Z 04019KT 11/M04 A3038 RMK A01 T01061043  RH  035%=      5-min Rain = 0
KCO2 141720Z 05016G21KT 11/M04 A3038 RMK A01 T01051043  RH  035%=      5-min Rain = 0
KCO2 141721Z 04013KT 11/M04 A3038 RMK A01 T01051042  RH  035%=      5-min Rain = 0
KCO2 141722Z 04018KT 11/M04 A3038 RMK A01 T01071040  RH  035%=      5-min Rain = 0
KCO2 141723Z 03016KT 11/M04 A3038 RMK A01 T01061042  RH  035%=      5-min Rain = 0
KCO2 141724Z 03015KT 11/M04 A3038 RMK A01 T01051041  RH  036%=      5-min Rain = 0
KCO2 141725Z 04016KT 11/M04 A3038 RMK A01 T01071037  RH  036%=      5-min Rain = 0
KCO2 141726Z 05017KT 11/M04 A3038 RMK A01 T01081038  RH  036%=      5-min Rain = 0
KCO2 141727Z 04017G22KT 11/M04 A3038 RMK A01 T01061041  RH  035%=      5-min Rain = 0
KCO2 141728Z 04017KT 11/M04 A3038 RMK A01 T01061040  RH  036%=      5-min Rain = 0
KCO2 141729Z 04013KT 11/M04 A3038 RMK A01 T01061038  RH  036%=      5-min Rain = 0
KCO2 141730Z 05015KT 11/M04 A3038 RMK A01 T01091035  RH  036%=      5-min Rain = 0
KCO2 141731Z 05017KT 11/M04 A3038 RMK A01 T01121035  RH  036%=      5-min Rain = 0
KCO2 141732Z 05014KT 11/M04 A3038 RMK A01 T01111036  RH  035%=      5-min Rain = 0
KCO2 141733Z 04015KT 11/M04 A3038 RMK A01 T01111036  RH  036%=      5-min Rain = 0
KCO2 141734Z 05016KT 11/M04 A3038 RMK A01 T01101037  RH  036%=      5-min Rain = 0
KCO2 141735Z 04013KT 11/M04 A3038 RMK A01 T01091035  RH  036%=      5-min Rain = 0
KCO2 141736Z 03016KT 11/M03 A3038 RMK A01 T01131032  RH  036%=      5-min Rain = 0
KCO2 141737Z 03016KT 11/M03 A3038 RMK A01 T01131031  RH  036%=      5-min Rain = 0
KCO2 141738Z 03013KT 11/M03 A3038 RMK A01 T01121029  RH  037%=      5-min Rain = 0
KCO2 141739Z 04013KT 11/M03 A3038 RMK A01 T01121029  RH  037%=      5-min Rain = 0
KCO2 141740Z 04015KT 11/M03 A3038 RMK A01 T01111027  RH  038%=      5-min Rain = 0
KCO2 141741Z 05015KT 11/M03 A3038 RMK A01 T01091027  RH  038%=      5-min Rain = 0
KCO2 141742Z 04017G23KT 11/M03 A3038 RMK A01 T01081026  RH  039%=      5-min Rain = 0
KCO2 141743Z 03016KT 11/M03 A3038 RMK A01 T01081027  RH  039%=      5-min Rain = 0
KCO2 141744Z 05014KT 11/M03 A3038 RMK A01 T01071025  RH  039%=      5-min Rain = 0
KCO2 141745Z 05013KT 11/M02 A3038 RMK A01 T01081023  RH  040%=      5-min Rain = 0
KCO2 141746Z 04012KT 11/M02 A3038 RMK A01 T01121019  RH  040%=      5-min Rain = 0
KCO2 141747Z 05015KT 12/M02 A3038 RMK A01 T01161016  RH  040%=      5-min Rain = 0
KCO2 141748Z 04018KT 12/M02 A3038 RMK A01 T01191017  RH  039%=      5-min Rain = 0
KCO2 141749Z 03018KT 11/M02 A3038 RMK A01 T01131020  RH  039%=      5-min Rain = 0
KCO2 141750Z 03016KT 11/M02 A3038 RMK A01 T01101017  RH  041%=      5-min Rain = 0
KCO2 141751Z 04014KT 11/M02 A3038 RMK A01 T01101016  RH  042%=      5-min Rain = 0
KCO2 141752Z 03014KT 11/M02 A3038 RMK A01 T01101015  RH  042%=      5-min Rain = 0
KCO2 141753Z 03017KT 11/M01 A3038 RMK A01 T01121013  RH  042%=      5-min Rain = 0
KCO2 141754Z 03018KT 11/M01 A3038 RMK A01 T01121014  RH  041%=      5-min Rain = 0
KCO2 141755Z 03017KT 11/M01 A3038 RMK A01 T01111014  RH  042%=      5-min Rain = 0
KCO2 141756Z 04017KT 11/M01 A3038 RMK A01 T01111014  RH  042%=      5-min Rain = 0
KCO2 141757Z 04016KT 11/M01 A3038 RMK A01 T01101014  RH  042%=      5-min Rain = 0
KCO2 141758Z 03016KT 11/M01 A3038 RMK A01 T01101012  RH  043%=      5-min Rain = 0
KCO2 141759Z 04018KT 11/M01 A3038 RMK A01 T01111012  RH  042%=      5-min Rain = 0
KCO2 141800Z 04015G20KT 11/M01 A3038 RMK A01 T01091013  RH  043%=      5-min Rain = 0
KCO2 141801Z 04018G23KT 11/M01 A3038 RMK A01 T01091009  RH  044%=      5-min Rain = 0
KCO2 141802Z 03016KT 11/M01 A3038 RMK A01 T01101008  RH  044%=      5-min Rain = 0
KCO2 141803Z 03014KT 11/M01 A3038 RMK A01 T01101007  RH  044%=      5-min Rain = 0
KCO2 141804Z 03020G25KT 11/M00 A3038 RMK A01 T01121004  RH  045%=      5-min Rain = 0
KCO2 141805Z 03020KT 11/M01 A3038 RMK A01 T01101006  RH  044%=      5-min Rain = 0
KCO2 141806Z 03017KT 11/M01 A3038 RMK A01 T01091005  RH  045%=      5-min Rain = 0
KCO2 141807Z 04017KT 11/M01 A3038 RMK A01 T01101005  RH  045%=      5-min Rain = 0
KCO2 141808Z 03017G22KT 11/M00 A3038 RMK A01 T01101003  RH  045%=      5-min Rain = 0
KCO2 141809Z 04018KT 11/M00 A3038 RMK A01 T01111003  RH  045%=      5-min Rain = 0
KCO2 141810Z 03018KT 11/M00 A3038 RMK A01 T01111002  RH  046%=      5-min Rain = 0
KCO2 141811Z 05014KT 11/M00 A3038 RMK A01 T01111001  RH  046%=      5-min Rain = 0
KCO2 141812Z 05018KT 11/M00 A3038 RMK A01 T01121001  RH  046%=      5-min Rain = 0
KCO2 141813Z 03018G23KT 11/M00 A3038 RMK A01 T01131001  RH  045%=      5-min Rain = 0
KCO2 141814Z 02018KT 11/M00 A3037 RMK A01 T01131002  RH  045%=      5-min Rain = 0
KCO2 141815Z 02019KT 11/M00 A3037 RMK A01 T01121001  RH  045%=      5-min Rain = 0
KCO2 141816Z 03017KT 11/M00 A3037 RMK A01 T01121001  RH  046%=      5-min Rain = 0
KCO2 141817Z 04019KT 11/M00 A3037 RMK A01 T01121001  RH  046%=      5-min Rain = 0
KCO2 141818Z 04019KT 11/00 A3037 RMK A01 T011300-0  RH  046%=      5-min Rain = 0
KCO2 141819Z 04018KT 11/00 A3038 RMK A01 T011400-0  RH  045%=      5-min Rain = 0
KCO2 141820Z 05020KT 11/00 A3038 RMK A01 T011400-0  RH  045%=      5-min Rain = 0
KCO2 141821Z 05017KT 11/M00 A3037 RMK A01 T01121001  RH  046%=      5-min Rain = 0
KCO2 141822Z 05015KT 11/00 A3037 RMK A01 T01110001  RH  046%=      5-min Rain = 0
KCO2 141823Z 04014KT 11/00 A3037 RMK A01 T01130003  RH  047%=      5-min Rain = 0
KCO2 141824Z 05017G22KT 12/00 A3037 RMK A01 T01150003  RH  046%=      5-min Rain = 0
KCO2 141825Z 04017KT 12/00 A3037 RMK A01 T01150002  RH  046%=      5-min Rain = 0
KCO2 141826Z 04015KT 11/00 A3037 RMK A01 T01140002  RH  046%=      5-min Rain = 0
KCO2 141827Z 05014KT 11/00 A3037 RMK A01 T01130003  RH  047%=      5-min Rain = 0
KCO2 141828Z 04014KT 11/00 A3037 RMK A01 T01140003  RH  046%=      5-min Rain = 0
KCO2 141829Z 04014KT 12/00 A3037 RMK A01 T01160004  RH  046%=      5-min Rain = 0
KCO2 141830Z 04013KT 12/00 A3037 RMK A01 T01180004  RH  045%=      5-min Rain = 0
KCO2 141831Z 04016KT 12/01 A3037 RMK A01 T01200005  RH  045%=      5-min Rain = 0
KCO2 141832Z 05016KT 12/00 A3037 RMK A01 T01200004  RH  045%=      5-min Rain = 0
KCO2 141833Z 03014G19KT 12/00 A3037 RMK A01 T01180004  RH  046%=      5-min Rain = 0
KCO2 141834Z 03014KT 12/01 A3037 RMK A01 T01190005  RH  046%=      5-min Rain = 0
KCO2 141835Z 04013G18KT 12/00 A3037 RMK A01 T01190003  RH  045%=      5-min Rain = 0
KCO2 141836Z 03012KT 12/00 A3037 RMK A01 T01170003  RH  045%=      5-min Rain = 0
KCO2 141837Z 05017KT 12/00 A3037 RMK A01 T01180003  RH  045%=      5-min Rain = 0
KCO2 141838Z 05016KT 12/00 A3037 RMK A01 T01180000  RH  044%=      5-min Rain = 0
KCO2 141839Z 04013G20KT 12/00 A3037 RMK A01 T01170001  RH  045%=      5-min Rain = 0
KCO2 141840Z 03016KT 12/00 A3037 RMK A01 T01190002  RH  045%=      5-min Rain = 0
KCO2 141841Z 03019KT 12/00 A3037 RMK A01 T01190001  RH  044%=      5-min Rain = 0
KCO2 141842Z 04020KT 12/00 A3037 RMK A01 T011800-0  RH  044%=      5-min Rain = 0
KCO2 141843Z 03017KT 12/M00 A3037 RMK A01 T01161002  RH  044%=      5-min Rain = 0
KCO2 141844Z 04016KT 12/M00 A3037 RMK A01 T01151001  RH  045%=      5-min Rain = 0
KCO2 141845Z 04022KT 12/00 A3037 RMK A01 T011600-0  RH  045%=      5-min Rain = 0
KCO2 141846Z 03019KT 12/M00 A3037 RMK A01 T01151001  RH  045%=      5-min Rain = 0
KCO2 141847Z 03016KT 12/00 A3037 RMK A01 T01150000  RH  045%=      5-min Rain = 0
KCO2 141848Z 04018KT 12/00 A3037 RMK A01 T01160002  RH  045%=      5-min Rain = 0
KCO2 141849Z 03018KT 12/00 A3037 RMK A01 T01180002  RH  045%=      5-min Rain = 0
KCO2 141850Z 03017KT 12/00 A3037 RMK A01 T01180001  RH  045%=      5-min Rain = 0
KCO2 141851Z 04015KT 12/00 A3037 RMK A01 T01160001  RH  045%=      5-min Rain = 0
KCO2 141852Z 05013G19KT 12/00 A3037 RMK A01 T01160001  RH  045%=      5-min Rain = 0
KCO2 141853Z 06014KT 12/00 A3037 RMK A01 T01180001  RH  045%=      5-min Rain = 0
KCO2 141854Z 05016G23KT 12/00 A3037 RMK A01 T01180002  RH  045%=      5-min Rain = 0
KCO2 141855Z 04019G25KT 12/00 A3037 RMK A01 T01200001  RH  044%=      5-min Rain = 0
KCO2 141856Z 05018KT 12/M00 A3037 RMK A01 T01191001  RH  043%=      5-min Rain = 0
KCO2 141857Z 05019KT 12/M00 A3037 RMK A01 T01171001  RH  044%=      5-min Rain = 0
KCO2 141858Z 05017KT 11/M00 A3037 RMK A01 T01141002  RH  045%=      5-min Rain = 0
KCO2 141859Z 04016KT 11/M00 A3037 RMK A01 T01131002  RH  045%=      5-min Rain = 0
KCO2 141900Z 03016G21KT 11/M00 A3037 RMK A01 T01141001  RH  045%=      5-min Rain = 0
KCO2 141901Z 03017G22KT 12/00 A3037 RMK A01 T011800-0  RH  044%=      5-min Rain = 0
KCO2 141902Z 03017KT 12/M00 A3037 RMK A01 T01181001  RH  044%=      5-min Rain = 0
KCO2 141903Z 04016KT 12/M00 A3037 RMK A01 T01171001  RH  044%=      5-min Rain = 0
KCO2 141904Z 04015KT 12/M00 A3037 RMK A01 T01171001  RH  044%=      5-min Rain = 0
KCO2 141905Z 04015KT 12/M00 A3037 RMK A01 T01171001  RH  044%=      5-min Rain = 0
KCO2 141906Z 05017KT 12/M00 A3037 RMK A01 T01171003  RH  044%=      5-min Rain = 0
KCO2 141907Z 06018KT 12/M01 A3037 RMK A01 T01161005  RH  043%=      5-min Rain = 0
KCO2 141908Z 05015KT 12/M00 A3037 RMK A01 T01151004  RH  044%=      5-min Rain = 0
KCO2 141909Z 03014KT 12/00 A3037 RMK A01 T011800-0  RH  044%=      5-min Rain = 0
KCO2 141910Z 02014KT 12/00 A3037 RMK A01 T01200002  RH  044%=      5-min Rain = 0
KCO2 141911Z 02017KT 12/00 A3036 RMK A01 T01200000  RH  044%=      5-min Rain = 0
KCO2 141912Z 04011KT 12/00 A3036 RMK A01 T011900-0  RH  044%=      5-min Rain = 0
KCO2 141913Z 05016KT 12/M00 A3037 RMK A01 T01231001  RH  042%=      5-min Rain = 0
KCO2 141914Z 03015KT 12/M00 A3037 RMK A01 T01231004  RH  042%=      5-min Rain = 0
KCO2 141915Z 04015KT 12/M00 A3037 RMK A01 T01221003  RH  042%=      5-min Rain = 0
KCO2 141916Z 05015KT 12/M00 A3036 RMK A01 T01211004  RH  042%=      5-min Rain = 0
KCO2 141917Z 05015KT 12/M00 A3036 RMK A01 T01221004  RH  042%=      5-min Rain = 0
KCO2 141918Z 06016KT 12/M01 A3036 RMK A01 T01221007  RH  041%=      5-min Rain = 0
KCO2 141919Z 06018KT 12/M01 A3036 RMK A01 T01211007  RH  041%=      5-min Rain = 0
KCO2 141920Z 05017KT 12/M01 A3036 RMK A01 T01201009  RH  041%=      5-min Rain = 0
KCO2 141921Z 06018KT 12/M01 A3036 RMK A01 T01191010  RH  041%=      5-min Rain = 0
KCO2 141922Z 06016G21KT 12/M01 A3036 RMK A01 T01171013  RH  040%=      5-min Rain = 0
KCO2 141923Z 06017KT 12/M01 A3036 RMK A01 T01181010  RH  041%=      5-min Rain = 0
KCO2 141924Z 05016KT 12/M01 A3036 RMK A01 T01201008  RH  041%=      5-min Rain = 0
KCO2 141925Z 04013KT 12/M01 A3036 RMK A01 T01201007  RH  041%=      5-min Rain = 0
KCO2 141926Z 05014KT 12/M00 A3036 RMK A01 T01231004  RH  041%=      5-min Rain = 0
KCO2 141927Z 05016KT 12/M01 A3036 RMK A01 T01241008  RH  040%=      5-min Rain = 0
KCO2 141928Z 06015KT 12/M01 A3036 RMK A01 T01241009  RH  040%=      5-min Rain = 0
KCO2 141929Z 06013KT 12/M01 A3036 RMK A01 T01221009  RH  040%=      5-min Rain = 0
KCO2 141930Z 07014KT 12/M01 A3036 RMK A01 T01241007  RH  040%=      5-min Rain = 0
KCO2 141931Z 05016KT 13/M01 A3036 RMK A01 T01261007  RH  040%=      5-min Rain = 0
KCO2 141932Z 05015KT 13/M01 A3036 RMK A01 T01271009  RH  039%=      5-min Rain = 0
KCO2 141933Z 05015KT 13/M01 A3036 RMK A01 T01251009  RH  040%=      5-min Rain = 0
KCO2 141934Z 05016G21KT 13/M01 A3036 RMK A01 T01251009  RH  040%=      5-min Rain = 0
KCO2 141935Z 04019KT 12/M01 A3036 RMK A01 T01241009  RH  040%=      5-min Rain = 0
KCO2 141936Z 04018KT 12/M01 A3036 RMK A01 T01221010  RH  040%=      5-min Rain = 0
KCO2 141937Z 03018KT 12/M01 A3036 RMK A01 T01221010  RH  040%=      5-min Rain = 0
KCO2 141938Z 04017KT 12/M01 A3036 RMK A01 T01231008  RH  040%=      5-min Rain = 0
KCO2 141939Z 05015G20KT 12/M01 A3036 RMK A01 T01231007  RH  040%=      5-min Rain = 0
KCO2 141940Z 04015KT 13/M01 A3036 RMK A01 T01251006  RH  040%=      5-min Rain = 0
KCO2 141941Z 05016KT 13/M01 A3036 RMK A01 T01271007  RH  040%=      5-min Rain = 0
KCO2 141942Z 05016KT 13/M01 A3036 RMK A01 T01261009  RH  039%=      5-min Rain = 0
KCO2 141943Z 07013KT 12/M01 A3036 RMK A01 T01221009  RH  040%=      5-min Rain = 0
KCO2 141944Z 07014KT 12/M01 A3036 RMK A01 T01211007  RH  041%=      5-min Rain = 0
KCO2 141945Z 06016KT 12/M01 A3036 RMK A01 T01221007  RH  041%=      5-min Rain = 0
KCO2 141946Z 05014KT 12/M01 A3036 RMK A01 T01211007  RH  041%=      5-min Rain = 0
KCO2 141947Z 03013G18KT 12/M01 A3036 RMK A01 T01221005  RH  041%=      5-min Rain = 0
KCO2 141948Z 04010KT 12/M00 A3036 RMK A01 T01241004  RH  041%=      5-min Rain = 0
KCO2 141949Z 03015KT 13/M00 A3036 RMK A01 T01271002  RH  041%=      5-min Rain = 0
KCO2 141950Z 04013KT 13/M01 A3036 RMK A01 T01261005  RH  040%=      5-min Rain = 0
KCO2 141951Z 04013KT 12/M00 A3036 RMK A01 T01241004  RH  041%=      5-min Rain = 0
KCO2 141952Z 04013KT 12/M00 A3036 RMK A01 T01241004  RH  041%=      5-min Rain = 0
KCO2 141953Z 04011KT 13/M00 A3036 RMK A01 T01251004  RH  041%=      5-min Rain = 0
KCO2 141954Z 04012KT 12/M01 A3036 RMK A01 T01241005  RH  041%=      5-min Rain = 0
KCO2 141955Z 04016KT 12/M01 A3036 RMK A01 T01231005  RH  041%=      5-min Rain = 0
KCO2 141956Z 06012KT 12/M01 A3036 RMK A01 T01221006  RH  041%=      5-min Rain = 0
KCO2 141957Z 06011KT 12/M01 A3036 RMK A01 T01221005  RH  041%=      5-min Rain = 0
KCO2 141958Z 06011KT 12/M01 A3036 RMK A01 T01221005  RH  041%=      5-min Rain = 0
KCO2 141959Z 05012G17KT 12/M00 A3036 RMK A01 T01241004  RH  041%=      5-min Rain = 0
KCO2 142000Z 04015KT 13/M00 A3036 RMK A01 T01261004  RH  041%=      5-min Rain = 0
KCO2 142001Z 05016KT 13/M01 A3036 RMK A01 T01261005  RH  040%=      5-min Rain = 0
KCO2 142002Z 05017G22KT 12/M01 A3036 RMK A01 T01241007  RH  040%=      5-min Rain = 0
KCO2 142003Z 05016KT 12/M01 A3036 RMK A01 T01241006  RH  041%=      5-min Rain = 0
KCO2 142004Z 06015KT 12/M01 A3036 RMK A01 T01231006  RH  041%=      5-min Rain = 0
KCO2 142005Z 05014KT 12/M01 A3036 RMK A01 T01221006  RH  041%=      5-min Rain = 0
KCO2 142006Z 04010KT 12/M00 A3036 RMK A01 T01231004  RH  041%=      5-min Rain = 0
KCO2 142007Z 04012KT 13/M00 A3035 RMK A01 T01251004  RH  041%=      5-min Rain = 0
KCO2 142008Z 04013KT 13/M00 A3035 RMK A01 T01261004  RH  041%=      5-min Rain = 0
KCO2 142009Z 04014KT 13/M01 A3035 RMK A01 T01261005  RH  040%=      5-min Rain = 0
KCO2 142010Z 03016KT 13/M00 A3035 RMK A01 T01281004  RH  040%=      5-min Rain = 0
KCO2 142011Z 02015KT 13/M01 A3035 RMK A01 T01281006  RH  040%=      5-min Rain = 0
KCO2 142012Z 02013KT 13/M01 A3035 RMK A01 T01281007  RH  039%=      5-min Rain = 0
KCO2 142013Z 02011KT 13/M01 A3035 RMK A01 T01281007  RH  039%=      5-min Rain = 0
KCO2 142014Z 02013KT 13/M01 A3035 RMK A01 T01291006  RH  039%=      5-min Rain = 0
KCO2 142015Z 04011KT 13/M01 A3035 RMK A01 T01281006  RH  040%=      5-min Rain = 0
KCO2 142016Z 04010G17KT 13/M00 A3035 RMK A01 T01271004  RH  041%=      5-min Rain = 0
KCO2 142017Z 03015KT 13/M00 A3035 RMK A01 T01281003  RH  040%=      5-min Rain = 0
KCO2 142018Z 02012KT 13/M01 A3035 RMK A01 T01271005  RH  040%=      5-min Rain = 0
KCO2 142019Z 03014KT 13/M01 A3035 RMK A01 T01261005  RH  040%=      5-min Rain = 0
KCO2 142020Z 04013KT 13/M00 A3035 RMK A01 T01281004  RH  040%=      5-min Rain = 0
KCO2 142021Z 03013G19KT 13/M00 A3035 RMK A01 T01281004  RH  040%=      5-min Rain = 0
KCO2 142022Z 02016KT 13/M00 A3035 RMK A01 T01291004  RH  040%=      5-min Rain = 0
KCO2 142023Z 03012KT 13/M01 A3035 RMK A01 T01291005  RH  040%=      5-min Rain = 0
KCO2 142024Z 03012KT 13/M00 A3035 RMK A01 T01291004  RH  040%=      5-min Rain = 0
KCO2 142025Z 03015KT 13/M01 A3035 RMK A01 T01301006  RH  039%=      5-min Rain = 0
KCO2 142026Z 04016G21KT 13/M01 A3035 RMK A01 T01311006  RH  039%=      5-min Rain = 0
KCO2 142027Z 04016KT 13/M01 A3035 RMK A01 T01321009  RH  038%=      5-min Rain = 0
KCO2 142028Z 04014KT 13/M01 A3035 RMK A01 T01291010  RH  038%=      5-min Rain = 0
KCO2 142029Z 05012KT 13/M01 A3035 RMK A01 T01271008  RH  039%=      5-min Rain = 0
KCO2 142030Z 06012KT 13/M01 A3035 RMK A01 T01251009  RH  040%=      5-min Rain = 0
KCO2 142031Z 05013G21KT 13/M01 A3035 RMK A01 T01251007  RH  040%=      5-min Rain = 0
KCO2 142032Z 04016KT 13/M01 A3035 RMK A01 T01261009  RH  039%=      5-min Rain = 0
KCO2 142033Z 05014KT 13/M01 A3035 RMK A01 T01261009  RH  039%=      5-min Rain = 0
KCO2 142034Z 04014KT 13/M01 A3035 RMK A01 T01271009  RH  039%=      5-min Rain = 0
KCO2 142035Z 04014KT 13/M01 A3035 RMK A01 T01271009  RH  039%=      5-min Rain = 0
KCO2 142036Z 03015KT 13/M01 A3035 RMK A01 T01261009  RH  039%=      5-min Rain = 0
KCO2 142037Z 03014KT 13/M01 A3035 RMK A01 T01251010  RH  039%=      5-min Rain = 0
KCO2 142038Z 03015G23KT 12/M01 A3035 RMK A01 T01241009  RH  040%=      5-min Rain = 0
KCO2 142039Z 04019KT 13/M01 A3035 RMK A01 T01251010  RH  039%=      5-min Rain = 0
KCO2 142040Z 04016KT 13/M01 A3035 RMK A01 T01261010  RH  039%=      5-min Rain = 0
KCO2 142041Z 04017KT 13/M01 A3035 RMK A01 T01261009  RH  039%=      5-min Rain = 0
KCO2 142042Z 04018KT 13/M01 A3035 RMK A01 T01271010  RH  039%=      5-min Rain = 0
KCO2 142043Z 03016KT 13/M01 A3035 RMK A01 T01261011  RH  039%=      5-min Rain = 0
KCO2 142044Z 03014G19KT 13/M01 A3035 RMK A01 T01251012  RH  039%=      5-min Rain = 0
KCO2 142045Z 03017G22KT 13/M01 A3034 RMK A01 T01251010  RH  039%=      5-min Rain = 0
KCO2 142046Z 03015KT 13/M01 A3035 RMK A01 T01271009  RH  039%=      5-min Rain = 0
KCO2 142047Z 04012KT 13/M01 A3035 RMK A01 T01281008  RH  039%=      5-min Rain = 0
KCO2 142048Z 05014KT 13/M01 A3035 RMK A01 T01291008  RH  039%=      5-min Rain = 0
KCO2 142049Z 05012KT 13/M01 A3035 RMK A01 T01291009  RH  038%=      5-min Rain = 0
KCO2 142050Z 04013KT 13/M01 A3035 RMK A01 T01271008  RH  039%=      5-min Rain = 0
KCO2 142051Z 03013KT 13/M01 A3035 RMK A01 T01261008  RH  040%=      5-min Rain = 0
KCO2 142052Z 04014KT 13/M01 A3035 RMK A01 T01251007  RH  040%=      5-min Rain = 0
KCO2 142053Z 04013KT 13/M01 A3035 RMK A01 T01271005  RH  040%=      5-min Rain = 0
KCO2 142054Z 05012KT 13/M01 A3035 RMK A01 T01291006  RH  039%=      5-min Rain = 0
KCO2 142055Z 05014KT 13/M01 A3035 RMK A01 T01291006  RH  039%=      5-min Rain = 0
KCO2 142056Z 04012KT 13/M01 A3035 RMK A01 T01281006  RH  040%=      5-min Rain = 0
KCO2 142057Z 05016KT 13/M01 A3035 RMK A01 T01281007  RH  039%=      5-min Rain = 0
KCO2 142058Z 06014KT 13/M01 A3035 RMK A01 T01281009  RH  039%=      5-min Rain = 0
KCO2 142059Z 06012KT 13/M01 A3035 RMK A01 T01281009  RH  039%=      5-min Rain = 0
KCO2 142100Z 06012KT 13/M01 A3035 RMK A01 T01291008  RH  039%=      5-min Rain = 0
KCO2 142101Z 05011KT 13/M01 A3035 RMK A01 T01291006  RH  039%=      5-min Rain = 0
KCO2 142102Z 05014G19KT 13/M01 A3035 RMK A01 T01311005  RH  039%=      5-min Rain = 0
KCO2 142103Z 06016KT 13/M01 A3035 RMK A01 T01311006  RH  039%=      5-min Rain = 0
KCO2 142104Z 06014KT 13/M01 A3035 RMK A01 T01281006  RH  040%=      5-min Rain = 0
KCO2 142105Z 05012KT 13/M01 A3035 RMK A01 T01271005  RH  040%=      5-min Rain = 0
KCO2 142106Z 05014KT 13/M01 A3035 RMK A01 T01271005  RH  040%=      5-min Rain = 0
KCO2 142107Z 04016KT 13/M01 A3035 RMK A01 T01271005  RH  040%=      5-min Rain = 0
KCO2 142108Z 05013KT 13/M01 A3035 RMK A01 T01271005  RH  040%=      5-min Rain = 0
KCO2 142109Z 05010KT 13/M01 A3035 RMK A01 T01261005  RH  040%=      5-min Rain = 0
KCO2 142110Z 05011KT 13/M01 A3035 RMK A01 T01271005  RH  040%=      5-min Rain = 0
KCO2 142111Z 05010KT 13/M01 A3035 RMK A01 T01271006  RH  040%=      5-min Rain = 0
KCO2 142112Z 06011KT 13/M01 A3035 RMK A01 T01281005  RH  040%=      5-min Rain = 0
KCO2 142113Z 07011KT 13/M01 A3035 RMK A01 T01291006  RH  039%=      5-min Rain = 0
KCO2 142114Z 06008KT 13/M01 A3035 RMK A01 T01281007  RH  039%=      5-min Rain = 0
KCO2 142115Z 05011KT 13/M01 A3035 RMK A01 T01281006  RH  039%=      5-min Rain = 0
KCO2 142116Z 05013KT 13/M01 A3035 RMK A01 T01291006  RH  039%=      5-min Rain = 0
KCO2 142117Z 03009KT 13/M01 A3035 RMK A01 T01271007  RH  040%=      5-min Rain = 0
KCO2 142118Z 03011KT 13/M01 A3035 RMK A01 T01261005  RH  040%=      5-min Rain = 0
KCO2 142119Z 04010KT 13/M00 A3035 RMK A01 T01271003  RH  041%=      5-min Rain = 0
KCO2 142120Z 03011KT 13/M00 A3035 RMK A01 T01281003  RH  040%=      5-min Rain = 0
KCO2 142121Z 04009KT 13/M00 A3035 RMK A01 T01291003  RH  040%=      5-min Rain = 0
KCO2 142122Z 04011KT 13/M00 A3035 RMK A01 T01291003  RH  040%=      5-min Rain = 0
KCO2 142123Z 03014KT 13/M00 A3035 RMK A01 T01291004  RH  040%=      5-min Rain = 0
KCO2 142124Z 05015KT 13/M01 A3035 RMK A01 T01291005  RH  040%=      5-min Rain = 0
KCO2 142125Z 04012KT 13/M01 A3035 RMK A01 T01281006  RH  040%=      5-min Rain = 0
KCO2 142126Z 04012KT 13/M01 A3035 RMK A01 T01281006  RH  040%=      5-min Rain = 0
KCO2 142127Z 04010KT 13/M01 A3035 RMK A01 T01271006  RH  040%=      5-min Rain = 0
KCO2 142128Z 05010KT 13/M01 A3035 RMK A01 T01261005  RH  040%=      5-min Rain = 0
KCO2 142129Z 05012KT 13/M01 A3035 RMK A01 T01271006  RH  040%=      5-min Rain = 0
KCO2 142130Z 05011G16KT 13/M01 A3035 RMK A01 T01261006  RH  040%=      5-min Rain = 0
KCO2 142131Z 04014KT 13/M01 A3035 RMK A01 T01271006  RH  040%=      5-min Rain = 0
KCO2 142132Z 04015KT 13/M01 A3035 RMK A01 T01281006  RH  040%=      5-min Rain = 0
KCO2 142133Z 04013KT 13/M01 A3035 RMK A01 T01291006  RH  039%=      5-min Rain = 0
KCO2 142134Z 04012KT 13/M01 A3035 RMK A01 T01291007  RH  039%=      5-min Rain = 0
KCO2 142135Z 04015KT 13/M01 A3035 RMK A01 T01281007  RH  039%=      5-min Rain = 0
KCO2 142136Z 04014KT 13/M01 A3035 RMK A01 T01281009  RH  039%=      5-min Rain = 0
KCO2 142137Z 04012KT 13/M01 A3035 RMK A01 T01281008  RH  039%=      5-min Rain = 0
KCO2 142138Z 04010KT 13/M01 A3035 RMK A01 T01291007  RH  039%=      5-min Rain = 0
KCO2 142139Z 04010KT 13/M01 A3035 RMK A01 T01301006  RH  039%=      5-min Rain = 0
KCO2 142140Z 05013KT 13/M01 A3035 RMK A01 T01311006  RH  039%=      5-min Rain = 0
KCO2 142141Z 05012KT 13/M01 A3035 RMK A01 T01291007  RH  039%=      5-min Rain = 0
KCO2 142142Z 03011KT 13/M01 A3035 RMK A01 T01271006  RH  040%=      5-min Rain = 0
KCO2 142143Z 03012KT 13/M01 A3035 RMK A01 T01281006  RH  040%=      5-min Rain = 0
KCO2 142144Z 03012KT 13/M01 A3035 RMK A01 T01271007  RH  039%=      5-min Rain = 0
KCO2 142145Z 02013KT 13/M01 A3035 RMK A01 T01271007  RH  040%=      5-min Rain = 0
KCO2 142146Z 04012KT 13/M01 A3035 RMK A01 T01271006  RH  040%=      5-min Rain = 0
KCO2 142147Z 06012KT 13/M01 A3035 RMK A01 T01271007  RH  039%=      5-min Rain = 0
KCO2 142148Z 05013KT 13/M01 A3035 RMK A01 T01281007  RH  039%=      5-min Rain = 0
KCO2 142149Z 04011KT 13/M01 A3035 RMK A01 T01281007  RH  039%=      5-min Rain = 0
KCO2 142150Z 03010KT 13/M01 A3035 RMK A01 T01281005  RH  040%=      5-min Rain = 0
KCO2 142151Z 03012KT 13/M01 A3035 RMK A01 T01281006  RH  040%=      5-min Rain = 0
KCO2 142152Z 05009KT 13/M01 A3035 RMK A01 T01271006  RH  040%=      5-min Rain = 0
KCO2 142153Z 04007KT 13/M01 A3034 RMK A01 T01261006  RH  040%=      5-min Rain = 0
KCO2 142154Z 04012KT 13/M01 A3035 RMK A01 T01271005  RH  040%=      5-min Rain = 0
KCO2 142155Z 04011KT 13/M01 A3035 RMK A01 T01281007  RH  039%=      5-min Rain = 0
KCO2 142156Z 03016KT 13/M01 A3035 RMK A01 T01301006  RH  039%=      5-min Rain = 0
KCO2 142157Z 03015KT 13/M01 A3035 RMK A01 T01291007  RH  039%=      5-min Rain = 0
KCO2 142158Z 04012KT 13/M01 A3035 RMK A01 T01271007  RH  040%=      5-min Rain = 0
KCO2 142159Z 03011KT 13/M01 A3035 RMK A01 T01271006  RH  040%=      5-min Rain = 0
KCO2 142200Z 04012KT 13/M01 A3035 RMK A01 T01271006  RH  040%=      5-min Rain = 0
KCO2 142201Z 04015KT 13/M01 A3035 RMK A01 T01271005  RH  040%=      5-min Rain = 0
KCO2 142202Z 04012KT 13/M01 A3035 RMK A01 T01281006  RH  040%=      5-min Rain = 0
KCO2 142203Z 03011KT 13/M01 A3035 RMK A01 T01271006  RH  040%=      5-min Rain = 0
KCO2 142204Z 02013KT 13/M01 A3035 RMK A01 T01271006  RH  040%=      5-min Rain = 0
KCO2 142205Z 02012KT 13/M01 A3035 RMK A01 T01261007  RH  040%=      5-min Rain = 0
KCO2 142206Z 01011KT 13/M01 A3035 RMK A01 T01251007  RH  040%=      5-min Rain = 0
KCO2 142207Z 02011KT 12/M01 A3035 RMK A01 T01241006  RH  041%=      5-min Rain = 0
KCO2 142208Z 04010KT 12/M01 A3035 RMK A01 T01241006  RH  041%=      5-min Rain = 0
KCO2 142209Z 05013KT 13/M01 A3035 RMK A01 T01251006  RH  040%=      5-min Rain = 0
KCO2 142210Z 05016KT 13/M01 A3035 RMK A01 T01261007  RH  040%=      5-min Rain = 0
KCO2 142211Z 04012KT 13/M01 A3035 RMK A01 T01251006  RH  040%=      5-min Rain = 0
KCO2 142212Z 04009KT 13/M01 A3035 RMK A01 T01251006  RH  040%=      5-min Rain = 0
KCO2 142213Z 05009KT 13/M01 A3035 RMK A01 T01261005  RH  040%=      5-min Rain = 0
KCO2 142214Z 04008KT 13/M01 A3035 RMK A01 T01271005  RH  040%=      5-min Rain = 0
KCO2 142215Z 03009KT 13/M01 A3035 RMK A01 T01271005  RH  040%=      5-min Rain = 0
KCO2 142216Z 04010KT 13/M01 A3035 RMK A01 T01271006  RH  040%=      5-min Rain = 0
KCO2 142217Z 05011KT 13/M01 A3035 RMK A01 T01261006  RH  040%=      5-min Rain = 0
KCO2 142218Z 05013KT 13/M01 A3035 RMK A01 T01281005  RH  040%=      5-min Rain = 0
KCO2 142219Z 04012KT 13/M01 A3035 RMK A01 T01281006  RH  040%=      5-min Rain = 0
KCO2 142220Z 03011KT 13/M01 A3035 RMK A01 T01261006  RH  040%=      5-min Rain = 0
KCO2 142221Z 04011KT 13/M01 A3035 RMK A01 T01261005  RH  040%=      5-min Rain = 0
KCO2 142222Z 04010KT 13/M01 A3035 RMK A01 T01251005  RH  041%=      5-min Rain = 0
KCO2 142223Z 04012KT 13/M01 A3035 RMK A01 T01251005  RH  041%=      5-min Rain = 0
KCO2 142224Z 04011KT 13/M01 A3035 RMK A01 T01251005  RH  041%=      5-min Rain = 0
KCO2 142225Z 04011KT 13/M01 A3035 RMK A01 T01251005  RH  041%=      5-min Rain = 0
KCO2 142226Z 04011KT 13/M01 A3035 RMK A01 T01251005  RH  041%=      5-min Rain = 0
KCO2 142227Z 04010KT 13/M01 A3035 RMK A01 T01251005  RH  041%=      5-min Rain = 0
KCO2 142228Z 04011KT 13/M01 A3035 RMK A01 T01251005  RH  041%=      5-min Rain = 0
KCO2 142229Z 04011KT 12/M01 A3035 RMK A01 T01241005  RH  041%=      5-min Rain = 0
KCO2 142230Z 03012KT 12/M00 A3035 RMK A01 T01241004  RH  041%=      5-min Rain = 0
KCO2 142231Z 03010KT 12/M01 A3035 RMK A01 T01241005  RH  041%=      5-min Rain = 0
KCO2 142232Z 04009KT 12/M00 A3035 RMK A01 T01231004  RH  041%=      5-min Rain = 0
KCO2 142233Z 03011KT 12/M00 A3035 RMK A01 T01241004  RH  041%=      5-min Rain = 0
KCO2 142234Z 04009KT 12/M00 A3035 RMK A01 T01231004  RH  041%=      5-min Rain = 0
KCO2 142235Z 04007KT 12/M00 A3035 RMK A01 T01221004  RH  042%=      5-min Rain = 0
KCO2 142236Z 04008KT 12/M00 A3035 RMK A01 T01231004  RH  042%=      5-min Rain = 0
KCO2 142237Z 03012KT 12/M00 A3036 RMK A01 T01231004  RH  042%=      5-min Rain = 0
KCO2 142238Z 04011G16KT 12/M00 A3036 RMK A01 T01231004  RH  042%=      5-min Rain = 0
KCO2 142239Z 05010KT 12/M00 A3036 RMK A01 T01231004  RH  041%=      5-min Rain = 0
KCO2 142240Z 05010KT 12/M00 A3036 RMK A01 T01241004  RH  041%=      5-min Rain = 0
KCO2 142241Z 04011KT 12/M00 A3036 RMK A01 T01231004  RH  041%=      5-min Rain = 0
KCO2 142242Z 05011KT 12/M00 A3036 RMK A01 T01231004  RH  041%=      5-min Rain = 0
KCO2 142243Z 04011KT 12/M00 A3036 RMK A01 T01221004  RH  042%=      5-min Rain = 0
KCO2 142244Z 03010KT 12/M00 A3036 RMK A01 T01211004  RH  042%=      5-min Rain = 0
KCO2 142245Z 04009KT 12/M00 A3036 RMK A01 T01211004  RH  042%=      5-min Rain = 0
KCO2 142246Z 04009KT 12/M00 A3036 RMK A01 T01211003  RH  042%=      5-min Rain = 0
KCO2 142247Z 04008KT 12/M00 A3036 RMK A01 T01211004  RH  042%=      5-min Rain = 0
KCO2 142248Z 04007KT 12/M00 A3036 RMK A01 T01211003  RH  042%=      5-min Rain = 0
KCO2 142249Z 04007KT 12/M00 A3036 RMK A01 T01211003  RH  042%=      5-min Rain = 0
KCO2 142250Z 06009KT 12/M00 A3036 RMK A01 T01211003  RH  042%=      5-min Rain = 0
KCO2 142251Z 05009KT 12/M00 A3036 RMK A01 T01211003  RH  042%=      5-min Rain = 0
KCO2 142252Z 05008KT 12/M00 A3036 RMK A01 T01201003  RH  043%=      5-min Rain = 0
KCO2 142253Z 05007KT 12/M00 A3036 RMK A01 T01201003  RH  043%=      5-min Rain = 0
KCO2 142254Z 04007KT 12/M00 A3036 RMK A01 T01201003  RH  043%=      5-min Rain = 0
KCO2 142255Z 05008KT 12/M00 A3036 RMK A01 T01201003  RH  043%=      5-min Rain = 0
KCO2 142256Z 05009KT 12/M00 A3036 RMK A01 T01201002  RH  043%=      5-min Rain = 0
KCO2 142257Z 05010KT 12/M00 A3036 RMK A01 T01201003  RH  043%=      5-min Rain = 0
KCO2 142258Z 04009KT 12/M00 A3036 RMK A01 T01191003  RH  043%=      5-min Rain = 0
KCO2 142259Z 03009KT 12/M00 A3036 RMK A01 T01191003  RH  043%=      5-min Rain = 0
KCO2 142300Z 02010KT 12/M00 A3036 RMK A01 T01191002  RH  043%=      5-min Rain = 0
KCO2 142301Z 02011KT 12/M00 A3036 RMK A01 T01191003  RH  043%=      5-min Rain = 0
KCO2 142302Z 03010KT 12/M00 A3036 RMK A01 T01181003  RH  043%=      5-min Rain = 0
KCO2 142303Z 03010KT 12/M00 A3036 RMK A01 T01181003  RH  043%=      5-min Rain = 0
KCO2 142304Z 04008KT 12/M00 A3036 RMK A01 T01171004  RH  043%=      5-min Rain = 0
KCO2 142305Z 04007KT 12/M00 A3036 RMK A01 T01171003  RH  043%=      5-min Rain = 0
KCO2 142306Z 04009KT 12/M00 A3036 RMK A01 T01171002  RH  044%=      5-min Rain = 0
KCO2 142307Z 04009KT 12/M00 A3036 RMK A01 T01171003  RH  043%=      5-min Rain = 0
KCO2 142308Z 04008KT 12/M00 A3036 RMK A01 T01171003  RH  043%=      5-min Rain = 0
KCO2 142309Z 04010KT 12/M00 A3036 RMK A01 T01161004  RH  043%=      5-min Rain = 0
KCO2 142310Z 04011KT 12/M00 A3036 RMK A01 T01161003  RH  044%=      5-min Rain = 0
KCO2 142311Z 04012KT 12/M00 A3036 RMK A01 T01161004  RH  044%=      5-min Rain = 0
KCO2 142312Z 04011KT 12/M00 A3036 RMK A01 T01151004  RH  044%=      5-min Rain = 0
KCO2 142313Z 04011KT 12/M00 A3036 RMK A01 T01151004  RH  044%=      5-min Rain = 0
KCO2 142314Z 05011KT 11/M01 A3037 RMK A01 T01141005  RH  044%=      5-min Rain = 0
KCO2 142315Z 04009KT 11/M01 A3037 RMK A01 T01141005  RH  044%=      5-min Rain = 0
KCO2 142316Z 04009KT 11/M01 A3037 RMK A01 T01131005  RH  044%=      5-min Rain = 0
KCO2 142317Z 03010KT 11/M01 A3037 RMK A01 T01131005  RH  044%=      5-min Rain = 0
KCO2 142318Z 04008KT 11/M01 A3037 RMK A01 T01131006  RH  044%=      5-min Rain = 0
KCO2 142319Z 04007KT 11/M01 A3037 RMK A01 T01121006  RH  044%=      5-min Rain = 0
KCO2 142320Z 04010KT 11/M01 A3037 RMK A01 T01121006  RH  044%=      5-min Rain = 0
KCO2 142321Z 04010KT 11/M01 A3037 RMK A01 T01111006  RH  044%=      5-min Rain = 0
KCO2 142322Z 05009KT 11/M01 A3037 RMK A01 T01111006  RH  044%=      5-min Rain = 0
KCO2 142323Z 04009KT 11/M01 A3037 RMK A01 T01101007  RH  044%=      5-min Rain = 0
KCO2 142324Z 05008KT 11/M01 A3037 RMK A01 T01091007  RH  045%=      5-min Rain = 0
KCO2 142325Z 05009KT 11/M01 A3037 RMK A01 T01091007  RH  045%=      5-min Rain = 0
KCO2 142326Z 04008KT 11/M01 A3037 RMK A01 T01081007  RH  045%=      5-min Rain = 0
KCO2 142327Z 04008KT 11/M01 A3037 RMK A01 T01081007  RH  045%=      5-min Rain = 0
KCO2 142328Z 04009KT 11/M01 A3037 RMK A01 T01071007  RH  045%=      5-min Rain = 0
KCO2 142329Z 04009KT 11/M01 A3037 RMK A01 T01071007  RH  045%=      5-min Rain = 0
KCO2 142330Z 04010KT 11/M01 A3037 RMK A01 T01061007  RH  045%=      5-min Rain = 0
KCO2 142331Z 04009KT 11/M01 A3037 RMK A01 T01061007  RH  046%=      5-min Rain = 0
KCO2 142332Z 04008KT 11/M01 A3037 RMK A01 T01051007  RH  046%=      5-min Rain = 0
KCO2 142333Z 05008KT 11/M01 A3037 RMK A01 T01051007  RH  046%=      5-min Rain = 0
KCO2 142334Z 04007KT 10/M01 A3037 RMK A01 T01041006  RH  046%=      5-min Rain = 0
KCO2 142335Z 04008KT 10/M01 A3037 RMK A01 T01031006  RH  047%=      5-min Rain = 0
KCO2 142336Z 04008KT 10/M01 A3037 RMK A01 T01021007  RH  047%=      5-min Rain = 0
KCO2 142337Z 04007KT 10/M01 A3037 RMK A01 T01011006  RH  047%=      5-min Rain = 0
KCO2 142338Z 04008KT 10/M01 A3037 RMK A01 T01011006  RH  047%=      5-min Rain = 0
KCO2 142339Z 04008KT 10/M01 A3037 RMK A01 T01011006  RH  048%=      5-min Rain = 0
KCO2 142340Z 04007KT 10/M01 A3037 RMK A01 T01001006  RH  048%=      5-min Rain = 0
KCO2 142341Z 04007KT 10/M01 A3037 RMK A01 T01001006  RH  048%=      5-min Rain = 0
KCO2 142342Z 04007KT 10/M01 A3037 RMK A01 T00991006  RH  048%=      5-min Rain = 0
KCO2 142343Z 05007KT 10/M01 A3037 RMK A01 T00981006  RH  048%=      5-min Rain = 0
KCO2 142344Z 04007KT 10/M01 A3037 RMK A01 T00971005  RH  049%=      5-min Rain = 0
KCO2 142345Z 04007KT 10/M01 A3037 RMK A01 T00971005  RH  049%=      5-min Rain = 0
KCO2 142346Z 04007KT 10/M01 A3037 RMK A01 T00971005  RH  049%=      5-min Rain = 0
KCO2 142347Z 04007KT 10/M01 A3037 RMK A01 T00951006  RH  049%=      5-min Rain = 0
KCO2 142348Z 04007KT 10/M01 A3037 RMK A01 T00951006  RH  049%=      5-min Rain = 0
KCO2 142349Z 04007KT 09/M01 A3037 RMK A01 T00941006  RH  050%=      5-min Rain = 0
KCO2 142350Z 04007KT 09/M01 A3037 RMK A01 T00941006  RH  050%=      5-min Rain = 0
KCO2 142351Z 05008KT 09/M01 A3037 RMK A01 T00931006  RH  050%=      5-min Rain = 0
KCO2 142352Z 04008KT 09/M01 A3037 RMK A01 T00931006  RH  050%=      5-min Rain = 0
KCO2 142353Z 04008KT 09/M01 A3037 RMK A01 T00921006  RH  050%=      5-min Rain = 0
KCO2 142354Z 04007KT 09/M01 A3037 RMK A01 T00921006  RH  050%=      5-min Rain = 0
KCO2 142355Z 04008KT 09/M01 A3037 RMK A01 T00911006  RH  051%=      5-min Rain = 0
KCO2 142356Z 04007KT 09/M01 A3037 RMK A01 T00911006  RH  051%=      5-min Rain = 0
KCO2 142357Z 04007KT 09/M01 A3038 RMK A01 T00901006  RH  051%=      5-min Rain = 0
KCO2 142358Z 04007KT 09/M01 A3038 RMK A01 T00901006  RH  051%=      5-min Rain = 0
KCO2 142359Z 04007KT 09/M01 A3038 RMK A01 T00901007  RH  051%=      5-min Rain = 0
KCO2 150000Z 04007KT 09/M01 A3038 RMK A01 T00891007  RH  051%=      5-min Rain = 0
KCO2 150001Z 04007KT 09/M01 A3038 RMK A01 T00891007  RH  051%=      5-min Rain = 0
KCO2 150002Z 04007KT 09/M01 A3038 RMK A01 T00881007  RH  051%=      5-min Rain = 0
KCO2 150003Z 04007KT 09/M01 A3038 RMK A01 T00881007  RH  051%=      5-min Rain = 0
KCO2 150004Z 04007KT 09/M01 A3038 RMK A01 T00871008  RH  051%=      5-min Rain = 0
KCO2 150005Z 04006KT 09/M01 A3038 RMK A01 T00871008  RH  051%=      5-min Rain = 0
KCO2 150006Z 04007KT 09/M01 A3038 RMK A01 T00861008  RH  052%=      5-min Rain = 0
KCO2 150007Z 04007KT 09/M01 A3038 RMK A01 T00851008  RH  052%=      5-min Rain = 0
KCO2 150008Z 04006KT 08/M01 A3038 RMK A01 T00841008  RH  052%=      5-min Rain = 0
KCO2 150009Z 04007KT 08/M01 A3038 RMK A01 T00831008  RH  052%=      5-min Rain = 0
KCO2 150010Z 04007KT 08/M01 A3038 RMK A01 T00831008  RH  053%=      5-min Rain = 0
KCO2 150011Z 04007KT 08/M01 A3038 RMK A01 T00821008  RH  053%=      5-min Rain = 0
KCO2 150012Z 04007KT 08/M01 A3038 RMK A01 T00821008  RH  053%=      5-min Rain = 0
KCO2 150013Z 04007KT 08/M01 A3038 RMK A01 T00811008  RH  053%=      5-min Rain = 0
KCO2 150014Z 04007KT 08/M01 A3038 RMK A01 T00811008  RH  053%=      5-min Rain = 0
KCO2 150015Z 05007KT 08/M01 A3038 RMK A01 T00801008  RH  054%=      5-min Rain = 0
KCO2 150016Z 05007KT 08/M01 A3038 RMK A01 T00801008  RH  054%=      5-min Rain = 0
KCO2 150017Z 05007KT 08/M01 A3038 RMK A01 T00791008  RH  054%=      5-min Rain = 0
KCO2 150018Z 05007KT 08/M01 A3038 RMK A01 T00791008  RH  054%=      5-min Rain = 0
KCO2 150019Z 04007KT 08/M01 A3038 RMK A01 T00781009  RH  054%=      5-min Rain = 0
KCO2 150020Z 05007KT 08/M01 A3038 RMK A01 T00771009  RH  054%=      5-min Rain = 0
KCO2 150021Z 05007KT 08/M01 A3039 RMK A01 T00771008  RH  055%=      5-min Rain = 0
KCO2 150022Z 05007KT 08/M01 A3039 RMK A01 T00761009  RH  055%=      5-min Rain = 0
KCO2 150023Z 05007KT 08/M01 A3039 RMK A01 T00761009  RH  055%=      5-min Rain = 0
KCO2 150024Z 05007KT 08/M01 A3039 RMK A01 T00761009  RH  055%=      5-min Rain = 0
KCO2 150025Z 05006KT 08/M01 A3039 RMK A01 T00751009  RH  055%=      5-min Rain = 0
KCO2 150026Z 05007KT 07/M01 A3039 RMK A01 T00741009  RH  056%=      5-min Rain = 0
KCO2 150027Z 05006KT 07/M01 A3039 RMK A01 T00741009  RH  056%=      5-min Rain = 0
KCO2 150028Z 05007KT 07/M01 A3039 RMK A01 T00731009  RH  056%=      5-min Rain = 0
KCO2 150029Z 05007KT 07/M01 A3039 RMK A01 T00721009  RH  056%=      5-min Rain = 0
KCO2 150030Z 05007KT 07/M01 A3039 RMK A01 T00721009  RH  056%=      5-min Rain = 0
KCO2 150031Z 05007KT 07/M01 A3039 RMK A01 T00711009  RH  057%=      5-min Rain = 0
KCO2 150032Z 05007KT 07/M01 A3039 RMK A01 T00711009  RH  057%=      5-min Rain = 0
KCO2 150033Z 05007KT 07/M01 A3039 RMK A01 T00701009  RH  057%=      5-min Rain = 0
KCO2 150034Z 05007KT 07/M01 A3039 RMK A01 T00701009  RH  057%=      5-min Rain = 0
KCO2 150035Z 05007KT 07/M01 A3039 RMK A01 T00691009  RH  057%=      5-min Rain = 0
KCO2 150036Z 05007KT 07/M01 A3039 RMK A01 T00681010  RH  058%=      5-min Rain = 0
KCO2 150037Z 05007KT 07/M01 A3039 RMK A01 T00681010  RH  058%=      5-min Rain = 0
KCO2 150038Z 05008KT 07/M01 A3039 RMK A01 T00671010  RH  058%=      5-min Rain = 0
KCO2 150039Z 05008KT 07/M01 A3039 RMK A01 T00671010  RH  058%=      5-min Rain = 0
KCO2 150040Z 05008KT 07/M01 A3039 RMK A01 T00661010  RH  058%=      5-min Rain = 0
KCO2 150041Z 05008KT 07/M01 A3039 RMK A01 T00661010  RH  059%=      5-min Rain = 0
KCO2 150042Z 05008KT 07/M01 A3039 RMK A01 T00661009  RH  059%=      5-min Rain = 0
KCO2 150043Z 04008KT 07/M01 A3039 RMK A01 T00651009  RH  059%=      5-min Rain = 0
KCO2 150044Z 04008KT 07/M01 A3039 RMK A01 T00651009  RH  059%=      5-min Rain = 0
KCO2 150045Z 04008KT 07/M01 A3039 RMK A01 T00651009  RH  059%=      5-min Rain = 0
KCO2 150046Z 04007KT 06/M01 A3039 RMK A01 T00641009  RH  059%=      5-min Rain = 0
KCO2 150047Z 04007KT 07/M01 A3039 RMK A01 T00651009  RH  059%=      5-min Rain = 0
KCO2 150048Z 04007KT 07/M01 A3039 RMK A01 T00651009  RH  059%=      5-min Rain = 0
KCO2 150049Z 04007KT 06/M01 A3039 RMK A01 T00641009  RH  060%=      5-min Rain = 0
KCO2 150050Z 04007KT 06/M01 A3039 RMK A01 T00641009  RH  060%=      5-min Rain = 0
KCO2 150051Z 04007KT 06/M01 A3039 RMK A01 T00631009  RH  060%=      5-min Rain = 0
KCO2 150052Z 04007KT 06/M01 A3039 RMK A01 T00631009  RH  060%=      5-min Rain = 0
KCO2 150053Z 04007KT 06/M01 A304 RMK A01 T00631009  RH  060%=      5-min Rain = 0
KCO2 150054Z 04007KT 06/M01 A304 RMK A01 T00621009  RH  060%=      5-min Rain = 0
KCO2 150055Z 04007KT 06/M01 A304 RMK A01 T00621009  RH  060%=      5-min Rain = 0
KCO2 150056Z 04007KT 06/M01 A304 RMK A01 T00621009  RH  061%=      5-min Rain = 0
KCO2 150057Z 04007KT 06/M01 A304 RMK A01 T00611009  RH  061%=      5-min Rain = 0
KCO2 150058Z 04007KT 06/M01 A304 RMK A01 T00611009  RH  061%=      5-min Rain = 0
KCO2 150059Z 04007KT 06/M01 A304 RMK A01 T00601009  RH  061%=      5-min Rain = 0
KCO2 150100Z 04007KT 06/M01 A304 RMK A01 T00591010  RH  061%=      5-min Rain = 0
KCO2 150101Z 04006KT 06/M01 A304 RMK A01 T00591010  RH  061%=      5-min Rain = 0
KCO2 150102Z 04006KT 06/M01 A304 RMK A01 T00581010  RH  062%=      5-min Rain = 0
KCO2 150103Z 04006KT 06/M01 A304 RMK A01 T00581010  RH  062%=      5-min Rain = 0
KCO2 150104Z 04006KT 06/M01 A304 RMK A01 T00571010  RH  062%=      5-min Rain = 0
KCO2 150105Z 04007KT 06/M01 A304 RMK A01 T00571010  RH  062%=      5-min Rain = 0
KCO2 150106Z 04007KT 06/M01 A304 RMK A01 T00571010  RH  062%=      5-min Rain = 0
KCO2 150107Z 05007KT 06/M01 A3041 RMK A01 T00561010  RH  062%=      5-min Rain = 0
KCO2 150108Z 05007KT 06/M01 A3041 RMK A01 T00561010  RH  062%=      5-min Rain = 0
KCO2 150109Z 04007KT 06/M01 A3041 RMK A01 T00561010  RH  063%=      5-min Rain = 0
KCO2 150110Z 04007KT 06/M01 A3041 RMK A01 T00551010  RH  063%=      5-min Rain = 0
KCO2 150111Z 04007KT 06/M01 A3041 RMK A01 T00551011  RH  063%=      5-min Rain = 0
KCO2 150112Z 04007KT 06/M01 A3041 RMK A01 T00551011  RH  063%=      5-min Rain = 0
KCO2 150113Z 05007KT 05/M01 A3041 RMK A01 T00541011  RH  063%=      5-min Rain = 0
KCO2 150114Z 05007KT 05/M01 A3041 RMK A01 T00541011  RH  063%=      5-min Rain = 0
KCO2 150115Z 04007KT 05/M01 A3041 RMK A01 T00541010  RH  063%=      5-min Rain = 0
KCO2 150116Z 04007KT 05/M01 A3041 RMK A01 T00541010  RH  063%=      5-min Rain = 0
KCO2 150117Z 05007KT 05/M01 A3041 RMK A01 T00541010  RH  063%=      5-min Rain = 0
KCO2 150118Z 05007KT 05/M01 A3041 RMK A01 T00541009  RH  063%=      5-min Rain = 0
KCO2 150119Z 05008KT 05/M01 A3041 RMK A01 T00541010  RH  063%=      5-min Rain = 0
KCO2 150120Z 05007KT 05/M01 A3041 RMK A01 T00541010  RH  063%=      5-min Rain = 0
KCO2 150121Z 04007KT 06/M01 A3041 RMK A01 T00551009  RH  063%=      5-min Rain = 0
KCO2 150122Z 04007KT 06/M01 A3041 RMK A01 T00551009  RH  063%=      5-min Rain = 0
KCO2 150123Z 04008KT 06/M01 A3041 RMK A01 T00551009  RH  064%=      5-min Rain = 0
KCO2 150124Z 04007KT 06/M01 A3041 RMK A01 T00551009  RH  064%=      5-min Rain = 0
KCO2 150125Z 04007KT 06/M01 A3041 RMK A01 T00551009  RH  064%=      5-min Rain = 0
KCO2 150126Z 04007KT 06/M01 A3041 RMK A01 T00551009  RH  064%=      5-min Rain = 0
KCO2 150127Z 04007KT 05/M01 A3041 RMK A01 T00541009  RH  064%=      5-min Rain = 0
KCO2 150128Z 04008KT 06/M01 A3041 RMK A01 T00551009  RH  064%=      5-min Rain = 0
KCO2 150129Z 04008KT 06/M01 A3041 RMK A01 T00551008  RH  064%=      5-min Rain = 0
KCO2 150130Z 04008KT 06/M01 A3041 RMK A01 T00551008  RH  064%=      5-min Rain = 0
KCO2 150131Z 04008KT 06/M01 A3041 RMK A01 T00561008  RH  063%=      5-min Rain = 0
KCO2 150132Z 04008KT 06/M01 A3041 RMK A01 T00561008  RH  063%=      5-min Rain = 0
KCO2 150133Z 04008KT 06/M01 A3041 RMK A01 T00561008  RH  063%=      5-min Rain = 0
KCO2 150134Z 05008KT 06/M01 A3041 RMK A01 T00561008  RH  063%=      5-min Rain = 0
KCO2 150135Z 04008KT 06/M01 A3041 RMK A01 T00561008  RH  063%=      5-min Rain = 0
KCO2 150136Z 04008KT 06/M01 A3041 RMK A01 T00561008  RH  063%=      5-min Rain = 0
KCO2 150137Z 04008KT 06/M01 A3041 RMK A01 T00561008  RH  064%=      5-min Rain = 0
KCO2 150138Z 04008KT 06/M01 A3041 RMK A01 T00561007  RH  064%=      5-min Rain = 0
KCO2 150139Z 04008KT 06/M01 A3041 RMK A01 T00561007  RH  064%=      5-min Rain = 0
KCO2 150140Z 04008KT 06/M01 A3041 RMK A01 T00561008  RH  064%=      5-min Rain = 0
KCO2 150141Z 04008KT 06/M01 A3041 RMK A01 T00561007  RH  064%=      5-min Rain = 0
KCO2 150142Z 04008KT 06/M01 A3041 RMK A01 T00551008  RH  064%=      5-min Rain = 0
KCO2 150143Z 04008KT 06/M01 A3041 RMK A01 T00561008  RH  064%=      5-min Rain = 0
KCO2 150144Z 04008KT 06/M01 A3041 RMK A01 T00551008  RH  064%=      5-min Rain = 0
KCO2 150145Z 04008KT 06/M01 A3041 RMK A01 T00551008  RH  064%=      5-min Rain = 0
KCO2 150146Z 04007KT 06/M01 A3042 RMK A01 T00551008  RH  064%=      5-min Rain = 0
KCO2 150147Z 04007KT 06/M01 A3042 RMK A01 T00551008  RH  064%=      5-min Rain = 0
KCO2 150148Z 04007KT 06/M01 A3042 RMK A01 T00551008  RH  064%=      5-min Rain = 0
KCO2 150149Z 04007KT 05/M01 A3042 RMK A01 T00541008  RH  064%=      5-min Rain = 0
KCO2 150150Z 04006KT 05/M01 A3042 RMK A01 T00531008  RH  064%=      5-min Rain = 0
KCO2 150151Z 04006KT 05/M01 A3042 RMK A01 T00531008  RH  065%=      5-min Rain = 0
KCO2 150152Z 04006KT 05/M01 A3042 RMK A01 T00521008  RH  065%=      5-min Rain = 0
KCO2 150153Z 04006KT 05/M01 A3042 RMK A01 T00521008  RH  065%=      5-min Rain = 0
KCO2 150154Z 04006KT 05/M01 A3042 RMK A01 T00511009  RH  065%=      5-min Rain = 0
KCO2 150155Z 04005KT 05/M01 A3042 RMK A01 T00511009  RH  065%=      5-min Rain = 0
KCO2 150156Z 04005KT 05/M01 A3042 RMK A01 T00501009  RH  065%=      5-min Rain = 0
KCO2 150157Z 04005KT 05/M01 A3042 RMK A01 T00501009  RH  066%=      5-min Rain = 0
KCO2 150158Z 04005KT 05/M01 A3042 RMK A01 T00491009  RH  066%=      5-min Rain = 0
KCO2 150159Z 04004KT 05/M01 A3042 RMK A01 T00481010  RH  066%=      5-min Rain = 0
KCO2 150200Z 04004KT 05/M01 A3042 RMK A01 T00481009  RH  066%=      5-min Rain = 0
KCO2 150201Z 04003KT 05/M01 A3042 RMK A01 T00471010  RH  067%=      5-min Rain = 0
KCO2 150202Z 03003KT 05/M01 A3042 RMK A01 T00471009  RH  067%=      5-min Rain = 0
KCO2 150203Z 03003KT 05/M01 A3042 RMK A01 T00471009  RH  067%=      5-min Rain = 0
KCO2 150204Z 03003KT 05/M01 A3042 RMK A01 T00471010  RH  067%=      5-min Rain = 0
KCO2 150205Z 03003KT 05/M01 A3042 RMK A01 T00461010  RH  067%=      5-min Rain = 0
KCO2 150206Z 03003KT 05/M01 A3042 RMK A01 T00461010  RH  067%=      5-min Rain = 0
KCO2 150207Z 03003KT 05/M01 A3042 RMK A01 T00461010  RH  067%=      5-min Rain = 0
KCO2 150208Z 04003KT 05/M01 A3042 RMK A01 T00461010  RH  067%=      5-min Rain = 0
KCO2 150209Z 04003KT 05/M01 A3042 RMK A01 T00461010  RH  067%=      5-min Rain = 0
KCO2 150210Z 04003KT 05/M01 A3042 RMK A01 T00461010  RH  067%=      5-min Rain = 0
KCO2 150211Z 04004KT 05/M01 A3043 RMK A01 T00461010  RH  067%=      5-min Rain = 0
KCO2 150212Z 04004KT 05/M01 A3043 RMK A01 T00461011  RH  067%=      5-min Rain = 0
KCO2 150213Z 04004KT 05/M01 A3043 RMK A01 T00451011  RH  067%=      5-min Rain = 0
KCO2 150214Z 04004KT 05/M01 A3043 RMK A01 T00451011  RH  067%=      5-min Rain = 0
KCO2 150215Z 04005KT 04/M01 A3043 RMK A01 T00441012  RH  067%=      5-min Rain = 0
KCO2 150216Z 04005KT 04/M01 A3043 RMK A01 T00431012  RH  068%=      5-min Rain = 0
KCO2 150217Z 04005KT 04/M01 A3043 RMK A01 T00421012  RH  068%=      5-min Rain = 0
KCO2 150218Z 04005KT 04/M01 A3043 RMK A01 T00421012  RH  068%=      5-min Rain = 0
KCO2 150219Z 04005KT 04/M01 A3043 RMK A01 T00411012  RH  068%=      5-min Rain = 0
KCO2 150220Z 04005KT 04/M01 A3043 RMK A01 T00401013  RH  068%=      5-min Rain = 0
KCO2 150221Z 04004KT 04/M01 A3043 RMK A01 T00391013  RH  069%=      5-min Rain = 0
KCO2 150222Z 04004KT 04/M01 A3043 RMK A01 T00391013  RH  069%=      5-min Rain = 0
KCO2 150223Z 04004KT 04/M01 A3043 RMK A01 T00381013  RH  069%=      5-min Rain = 0
KCO2 150224Z 04004KT 04/M01 A3043 RMK A01 T00381012  RH  070%=      5-min Rain = 0
KCO2 150225Z 04004KT 04/M01 A3043 RMK A01 T00381012  RH  070%=      5-min Rain = 0
KCO2 150226Z 04004KT 04/M01 A3043 RMK A01 T00381011  RH  070%=      5-min Rain = 0
KCO2 150227Z 04004KT 04/M01 A3043 RMK A01 T00391011  RH  070%=      5-min Rain = 0
KCO2 150228Z 04004KT 04/M01 A3043 RMK A01 T00401010  RH  070%=      5-min Rain = 0
KCO2 150229Z 04004KT 04/M01 A3043 RMK A01 T00411010  RH  069%=      5-min Rain = 0
KCO2 150230Z 04004KT 04/M01 A3043 RMK A01 T00421010  RH  069%=      5-min Rain = 0
KCO2 150231Z 04004KT 04/M01 A3043 RMK A01 T00431010  RH  068%=      5-min Rain = 0
KCO2 150232Z 04004KT 04/M01 A3043 RMK A01 T00431010  RH  068%=      5-min Rain = 0
KCO2 150233Z 05004KT 04/M01 A3043 RMK A01 T00421010  RH  068%=      5-min Rain = 0
KCO2 150234Z 05004KT 04/M01 A3043 RMK A01 T00431010  RH  068%=      5-min Rain = 0
KCO2 150235Z 05003KT 04/M01 A3043 RMK A01 T00431010  RH  068%=      5-min Rain = 0
KCO2 150236Z 05003KT 04/M01 A3043 RMK A01 T00431010  RH  069%=      5-min Rain = 0
KCO2 150237Z 06003KT 04/M01 A3043 RMK A01 T00431010  RH  069%=      5-min Rain = 0
KCO2 150238Z 06004KT 04/M01 A3043 RMK A01 T00431010  RH  068%=      5-min Rain = 0
KCO2 150239Z 06004KT 04/M01 A3043 RMK A01 T00441010  RH  068%=      5-min Rain = 0
KCO2 150240Z 06004KT 04/M01 A3043 RMK A01 T00431011  RH  068%=      5-min Rain = 0
KCO2 150241Z 05004KT 04/M01 A3043 RMK A01 T00441010  RH  068%=      5-min Rain = 0
KCO2 150242Z 05004KT 04/M01 A3043 RMK A01 T00431010  RH  068%=      5-min Rain = 0
KCO2 150243Z 05004KT 04/M01 A3043 RMK A01 T00421011  RH  068%=      5-min Rain = 0
KCO2 150244Z 05004KT 04/M01 A3043 RMK A01 T00411011  RH  069%=      5-min Rain = 0
KCO2 150245Z 05004KT 04/M01 A3043 RMK A01 T00401011  RH  069%=      5-min Rain = 0
KCO2 150246Z 05005KT 04/M01 A3043 RMK A01 T00401011  RH  069%=      5-min Rain = 0
KCO2 150247Z 05004KT 04/M01 A3043 RMK A01 T00391011  RH  070%=      5-min Rain = 0
KCO2 150248Z 05004KT 04/M01 A3043 RMK A01 T00381011  RH  070%=      5-min Rain = 0
KCO2 150249Z 05004KT 04/M01 A3043 RMK A01 T00371012  RH  070%=      5-min Rain = 0
KCO2 150250Z 05004KT 04/M01 A3043 RMK A01 T00361012  RH  071%=      5-min Rain = 0
KCO2 150251Z 05004KT 04/M01 A3043 RMK A01 T00361011  RH  071%=      5-min Rain = 0
KCO2 150252Z 05004KT 04/M01 A3043 RMK A01 T00371010  RH  071%=      5-min Rain = 0
KCO2 150253Z 05004KT 04/M01 A3043 RMK A01 T00381010  RH  071%=      5-min Rain = 0
KCO2 150254Z 04005KT 04/M01 A3043 RMK A01 T00381011  RH  070%=      5-min Rain = 0
KCO2 150255Z 04005KT 04/M01 A3043 RMK A01 T00391011  RH  070%=      5-min Rain = 0
KCO2 150256Z 04005KT 04/M01 A3043 RMK A01 T00391011  RH  070%=      5-min Rain = 0
KCO2 150257Z 05006KT 04/M01 A3043 RMK A01 T00391011  RH  070%=      5-min Rain = 0
KCO2 150258Z 05006KT 04/M01 A3043 RMK A01 T00381011  RH  070%=      5-min Rain = 0
KCO2 150259Z 04006KT 04/M01 A3043 RMK A01 T00391010  RH  070%=      5-min Rain = 0
KCO2 150300Z 04006KT 04/M01 A3043 RMK A01 T00391010  RH  070%=      5-min Rain = 0
KCO2 150301Z 05006KT 04/M01 A3043 RMK A01 T00401010  RH  070%=      5-min Rain = 0
KCO2 150302Z 05006KT 04/M01 A3043 RMK A01 T00401011  RH  070%=      5-min Rain = 0
KCO2 150303Z 05006KT 04/M01 A3043 RMK A01 T00391011  RH  070%=      5-min Rain = 0
KCO2 150304Z 05006KT 04/M01 A3043 RMK A01 T00391011  RH  070%=      5-min Rain = 0
KCO2 150305Z 05006KT 04/M01 A3043 RMK A01 T00381011  RH  070%=      5-min Rain = 0
KCO2 150306Z 05006KT 04/M01 A3044 RMK A01 T00391011  RH  070%=      5-min Rain = 0
KCO2 150307Z 05006KT 04/M01 A3044 RMK A01 T00381011  RH  070%=      5-min Rain = 0
KCO2 150308Z 05006KT 04/M01 A3044 RMK A01 T00391011  RH  070%=      5-min Rain = 0
KCO2 150309Z 05006KT 04/M01 A3044 RMK A01 T00381011  RH  070%=      5-min Rain = 0
KCO2 150310Z 05006KT 04/M01 A3044 RMK A01 T00381012  RH  070%=      5-min Rain = 0
KCO2 150311Z 05006KT 04/M01 A3044 RMK A01 T00371012  RH  070%=      5-min Rain = 0
KCO2 150312Z 05006KT 04/M01 A3044 RMK A01 T00371011  RH  071%=      5-min Rain = 0
KCO2 150313Z 05006KT 04/M01 A3044 RMK A01 T00371012  RH  071%=      5-min Rain = 0
KCO2 150314Z 05006KT 04/M01 A3044 RMK A01 T00371012  RH  071%=      5-min Rain = 0
KCO2 150315Z 05006KT 04/M01 A3044 RMK A01 T00361012  RH  071%=      5-min Rain = 0
KCO2 150316Z 05006KT 04/M01 A3044 RMK A01 T00351012  RH  071%=      5-min Rain = 0
KCO2 150317Z 05005KT 04/M01 A3044 RMK A01 T00351012  RH  071%=      5-min Rain = 0
KCO2 150318Z 05005KT 03/M01 A3044 RMK A01 T00341013  RH  071%=      5-min Rain = 0
KCO2 150319Z 05005KT 03/M01 A3044 RMK A01 T00331014  RH  071%=      5-min Rain = 0
KCO2 150320Z 04004KT 03/M02 A3044 RMK A01 T00311015  RH  072%=      5-min Rain = 0
KCO2 150321Z 04004KT 03/M02 A3044 RMK A01 T00261020  RH  072%=      5-min Rain = 0
KCO2 150322Z 04004KT 02/M02 A3044 RMK A01 T00231020  RH  073%=      5-min Rain = 0
KCO2 150323Z 04004KT 02/M02 A3044 RMK A01 T00221018  RH  075%=      5-min Rain = 0
KCO2 150324Z 04004KT 02/M02 A3044 RMK A01 T00211018  RH  075%=      5-min Rain = 0
KCO2 150325Z 04003KT 02/M02 A3044 RMK A01 T00211017  RH  076%=      5-min Rain = 0
KCO2 150326Z 04003KT 02/M02 A3044 RMK A01 T00211016  RH  076%=      5-min Rain = 0
KCO2 150327Z 04003KT 02/M02 A3044 RMK A01 T00211016  RH  076%=      5-min Rain = 0
KCO2 150328Z 04002KT 02/M02 A3044 RMK A01 T00211016  RH  076%=      5-min Rain = 0
KCO2 150329Z 04002KT 02/M02 A3044 RMK A01 T00211016  RH  077%=      5-min Rain = 0
KCO2 150330Z 03001KT 02/M02 A3044 RMK A01 T00221015  RH  077%=      5-min Rain = 0
KCO2 150331Z 03001KT 02/M02 A3044 RMK A01 T00221015  RH  077%=      5-min Rain = 0
KCO2 150332Z 02001KT 02/M01 A3044 RMK A01 T00231014  RH  077%=      5-min Rain = 0
KCO2 150333Z 02001KT 02/M01 A3044 RMK A01 T00231014  RH  077%=      5-min Rain = 0
KCO2 150334Z 02001KT 02/M02 A3044 RMK A01 T00231015  RH  076%=      5-min Rain = 0
KCO2 150335Z 03002KT 02/M02 A3044 RMK A01 T00221015  RH  076%=      5-min Rain = 0
KCO2 150336Z 03002KT 02/M02 A3044 RMK A01 T00221015  RH  076%=      5-min Rain = 0
KCO2 150337Z 03002KT 02/M02 A3044 RMK A01 T00221015  RH  076%=      5-min Rain = 0
KCO2 150338Z 02001KT 02/M02 A3044 RMK A01 T00231015  RH  076%=      5-min Rain = 0
KCO2 150339Z 02001KT 02/M02 A3044 RMK A01 T00221015  RH  076%=      5-min Rain = 0
KCO2 150340Z 02000KT 02/M01 A3044 RMK A01 T00231014  RH  077%=      5-min Rain = 0
KCO2 150341Z 00000KT 02/M01 A3044 RMK A01 T00241013  RH  077%=      5-min Rain = 0
KCO2 150342Z 00000KT 03/M01 A3044 RMK A01 T00251012  RH  077%=      5-min Rain = 0
KCO2 150343Z 02000KT 03/M01 A3045 RMK A01 T00251012  RH  076%=      5-min Rain = 0
KCO2 150344Z 02000KT 03/M01 A3045 RMK A01 T00251012  RH  076%=      5-min Rain = 0
KCO2 150345Z 01001KT 03/M01 A3044 RMK A01 T00251012  RH  076%=      5-min Rain = 0
KCO2 150346Z 02001KT 03/M01 A3044 RMK A01 T00251012  RH  076%=      5-min Rain = 0
KCO2 150347Z 03001KT 03/M01 A3044 RMK A01 T00261012  RH  076%=      5-min Rain = 0
KCO2 150348Z 04001KT 03/M01 A3045 RMK A01 T00271011  RH  076%=      5-min Rain = 0
KCO2 150349Z 07001KT 03/M01 A3045 RMK A01 T00271013  RH  075%=      5-min Rain = 0
KCO2 150350Z 07001KT 03/M02 A3045 RMK A01 T00251018  RH  073%=      5-min Rain = 0
KCO2 150351Z 07001KT 02/M02 A3045 RMK A01 T00231018  RH  074%=      5-min Rain = 0
KCO2 150352Z 06001KT 02/M02 A3045 RMK A01 T00231015  RH  076%=      5-min Rain = 0
KCO2 150353Z 05001KT 03/M01 A3045 RMK A01 T00251011  RH  077%=      5-min Rain = 0
KCO2 150354Z 04001KT 03/M01 A3045 RMK A01 T00271009  RH  077%=      5-min Rain = 0
KCO2 150355Z 05001KT 03/M01 A3045 RMK A01 T00291009  RH  076%=      5-min Rain = 0
KCO2 150356Z 06001KT 03/M01 A3045 RMK A01 T00291010  RH  076%=      5-min Rain = 0
KCO2 150357Z 06001KT 03/M01 A3045 RMK A01 T00291010  RH  075%=      5-min Rain = 0
KCO2 150358Z 06000KT 03/M01 A3045 RMK A01 T00291010  RH  075%=      5-min Rain = 0
KCO2 150359Z 00000KT 03/M01 A3045 RMK A01 T00301010  RH  075%=      5-min Rain = 0
KCO2 150400Z 00000KT 03/M01 A3045 RMK A01 T00311010  RH  074%=      5-min Rain = 0
KCO2 150401Z 00000KT 03/M01 A3045 RMK A01 T00321010  RH  074%=      5-min Rain = 0
KCO2 150402Z 00000KT 03/M01 A3045 RMK A01 T00321011  RH  073%=      5-min Rain = 0
KCO2 150403Z 00000KT 03/M01 A3045 RMK A01 T00321012  RH  073%=      5-min Rain = 0
KCO2 150404Z 00000KT 03/M01 A3045 RMK A01 T00321011  RH  073%=      5-min Rain = 0
KCO2 150405Z 00000KT 03/M01 A3045 RMK A01 T00331012  RH  073%=      5-min Rain = 0
KCO2 150406Z 00000KT 03/M01 A3045 RMK A01 T00321012  RH  073%=      5-min Rain = 0
KCO2 150407Z 00000KT 03/M01 A3045 RMK A01 T00321011  RH  073%=      5-min Rain = 0
KCO2 150408Z 00000KT 03/M01 A3045 RMK A01 T00321012  RH  073%=      5-min Rain = 0
KCO2 150409Z 00000KT 03/M01 A3045 RMK A01 T00301013  RH  073%=      5-min Rain = 0
KCO2 150410Z 00000KT 03/M01 A3045 RMK A01 T00281014  RH  074%=      5-min Rain = 0
KCO2 150411Z 00000KT 03/M01 A3045 RMK A01 T00271014  RH  074%=      5-min Rain = 0
KCO2 150412Z 06000KT 03/M02 A3045 RMK A01 T00251015  RH  075%=      5-min Rain = 0
KCO2 150413Z 06001KT 02/M02 A3045 RMK A01 T00241015  RH  076%=      5-min Rain = 0
KCO2 150414Z 06001KT 02/M02 A3045 RMK A01 T00231015  RH  076%=      5-min Rain = 0
KCO2 150415Z 05001KT 02/M01 A3045 RMK A01 T00221014  RH  077%=      5-min Rain = 0
KCO2 150416Z 04001KT 02/M01 A3045 RMK A01 T00231012  RH  077%=      5-min Rain = 0
KCO2 150417Z 03002KT 03/M01 A3045 RMK A01 T00261011  RH  077%=      5-min Rain = 0
KCO2 150418Z 03002KT 03/M01 A3045 RMK A01 T00261012  RH  076%=      5-min Rain = 0
KCO2 150419Z 03002KT 03/M01 A3045 RMK A01 T00271012  RH  075%=      5-min Rain = 0
KCO2 150420Z 04003KT 03/M01 A3045 RMK A01 T00271013  RH  075%=      5-min Rain = 0
KCO2 150421Z 03003KT 03/M01 A3045 RMK A01 T00281012  RH  075%=      5-min Rain = 0
KCO2 150422Z 03003KT 03/M01 A3045 RMK A01 T00281011  RH  075%=      5-min Rain = 0
KCO2 150423Z 03004KT 03/M01 A3045 RMK A01 T00291011  RH  075%=      5-min Rain = 0
KCO2 150424Z 03004KT 03/M01 A3045 RMK A01 T00291012  RH  074%=      5-min Rain = 0
KCO2 150425Z 02004KT 03/M01 A3045 RMK A01 T00291012  RH  074%=      5-min Rain = 0
KCO2 150426Z 02004KT 03/M01 A3045 RMK A01 T00281013  RH  075%=      5-min Rain = 0
KCO2 150427Z 02004KT 03/M01 A3045 RMK A01 T00271013  RH  075%=      5-min Rain = 0
KCO2 150428Z 02004KT 03/M01 A3045 RMK A01 T00271013  RH  075%=      5-min Rain = 0
KCO2 150429Z 02004KT 03/M01 A3045 RMK A01 T00261013  RH  075%=      5-min Rain = 0
KCO2 150430Z 02004KT 03/M01 A3045 RMK A01 T00251013  RH  076%=      5-min Rain = 0
KCO2 150431Z 02004KT 02/M01 A3045 RMK A01 T00241014  RH  076%=      5-min Rain = 0
KCO2 150432Z 02004KT 02/M01 A3045 RMK A01 T00241013  RH  077%=      5-min Rain = 0
KCO2 150433Z 02004KT 02/M01 A3045 RMK A01 T00241013  RH  077%=      5-min Rain = 0
KCO2 150434Z 02005KT 02/M01 A3045 RMK A01 T00241013  RH  077%=      5-min Rain = 0
KCO2 150435Z 02005KT 02/M01 A3045 RMK A01 T00241012  RH  077%=      5-min Rain = 0
KCO2 150436Z 02005KT 02/M01 A3045 RMK A01 T00241012  RH  077%=      5-min Rain = 0
KCO2 150437Z 02005KT 02/M01 A3045 RMK A01 T00241012  RH  077%=      5-min Rain = 0
KCO2 150438Z 02005KT 02/M01 A3045 RMK A01 T00231012  RH  077%=      5-min Rain = 0
KCO2 150439Z 02005KT 02/M01 A3045 RMK A01 T00231012  RH  078%=      5-min Rain = 0
KCO2 150440Z 02005KT 02/M01 A3045 RMK A01 T00231012  RH  078%=      5-min Rain = 0
KCO2 150441Z 02005KT 02/M01 A3045 RMK A01 T00221012  RH  078%=      5-min Rain = 0
KCO2 150442Z 02005KT 02/M01 A3045 RMK A01 T00221012  RH  078%=      5-min Rain = 0
KCO2 150443Z 02004KT 02/M01 A3045 RMK A01 T00221011  RH  079%=      5-min Rain = 0
KCO2 150444Z 02005KT 02/M01 A3045 RMK A01 T00221011  RH  079%=      5-min Rain = 0
KCO2 150445Z 02004KT 02/M01 A3045 RMK A01 T00221011  RH  079%=      5-min Rain = 0
KCO2 150446Z 02005KT 02/M01 A3045 RMK A01 T00221011  RH  079%=      5-min Rain = 0
KCO2 150447Z 02005KT 02/M01 A3045 RMK A01 T00221011  RH  079%=      5-min Rain = 0
KCO2 150448Z 02005KT 02/M01 A3045 RMK A01 T00221011  RH  079%=      5-min Rain = 0
KCO2 150449Z 02005KT 02/M01 A3045 RMK A01 T00221011  RH  079%=      5-min Rain = 0
KCO2 150450Z 02005KT 02/M01 A3045 RMK A01 T00221011  RH  079%=      5-min Rain = 0
KCO2 150451Z 02005KT 02/M01 A3044 RMK A01 T00221010  RH  079%=      5-min Rain = 0
KCO2 150452Z 02004KT 02/M01 A3044 RMK A01 T00221010  RH  079%=      5-min Rain = 0
KCO2 150453Z 02005KT 02/M01 A3044 RMK A01 T00221010  RH  079%=      5-min Rain = 0
KCO2 150454Z 02005KT 02/M01 A3044 RMK A01 T00221010  RH  079%=      5-min Rain = 0
KCO2 150455Z 02005KT 02/M01 A3044 RMK A01 T00221010  RH  079%=      5-min Rain = 0
KCO2 150456Z 02005KT 02/M01 A3044 RMK A01 T00221010  RH  079%=      5-min Rain = 0
KCO2 150457Z 03005KT 02/M01 A3044 RMK A01 T00221010  RH  079%=      5-min Rain = 0
KCO2 150458Z 03005KT 02/M01 A3045 RMK A01 T00221010  RH  079%=      5-min Rain = 0
KCO2 150459Z 03005KT 02/M01 A3045 RMK A01 T00221010  RH  079%=      5-min Rain = 0
KCO2 150500Z 03005KT 02/M01 A3045 RMK A01 T00221010  RH  079%=      5-min Rain = 0
KCO2 150501Z 03005KT 02/M01 A3045 RMK A01 T00211010  RH  079%=      5-min Rain = 0
KCO2 150502Z 03005KT 02/M01 A3045 RMK A01 T00221010  RH  079%=      5-min Rain = 0
KCO2 150503Z 03004KT 02/M01 A3044 RMK A01 T00221010  RH  079%=      5-min Rain = 0
KCO2 150504Z 02003KT 02/M01 A3044 RMK A01 T00221010  RH  079%=      5-min Rain = 0
KCO2 150505Z 35002KT 02/M01 A3045 RMK A01 T00221010  RH  079%=      5-min Rain = 0
KCO2 150506Z 35002KT 02/M01 A3045 RMK A01 T00221010  RH  079%=      5-min Rain = 0
KCO2 150507Z 35002KT 02/M01 A3045 RMK A01 T00231010  RH  079%=      5-min Rain = 0
KCO2 150508Z 35001KT 02/M01 A3045 RMK A01 T00231010  RH  079%=      5-min Rain = 0
KCO2 150509Z 35001KT 02/M01 A3045 RMK A01 T00231010  RH  079%=      5-min Rain = 0
KCO2 150510Z 35001KT 02/M01 A3045 RMK A01 T00231010  RH  079%=      5-min Rain = 0
KCO2 150511Z 35001KT 02/M01 A3045 RMK A01 T00231010  RH  079%=      5-min Rain = 0
KCO2 150512Z 02002KT 02/M01 A3045 RMK A01 T00231009  RH  079%=      5-min Rain = 0
KCO2 150513Z 03003KT 02/M01 A3045 RMK A01 T00231010  RH  079%=      5-min Rain = 0
KCO2 150514Z 03003KT 02/M01 A3045 RMK A01 T00241010  RH  079%=      5-min Rain = 0
KCO2 150515Z 02004KT 02/M01 A3045 RMK A01 T00241010  RH  078%=      5-min Rain = 0
KCO2 150516Z 02004KT 02/M01 A3045 RMK A01 T00231012  RH  078%=      5-min Rain = 0
KCO2 150517Z 02004KT 02/M01 A3045 RMK A01 T00221012  RH  078%=      5-min Rain = 0
KCO2 150518Z 02004KT 02/M01 A3045 RMK A01 T00221012  RH  078%=      5-min Rain = 0
KCO2 150519Z 02004KT 02/M01 A3045 RMK A01 T00211011  RH  079%=      5-min Rain = 0
KCO2 150520Z 02004KT 02/M01 A3045 RMK A01 T00221011  RH  079%=      5-min Rain = 0
KCO2 150521Z 02004KT 02/M01 A3045 RMK A01 T00221012  RH  078%=      5-min Rain = 0
KCO2 150522Z 02004KT 02/M01 A3045 RMK A01 T00211013  RH  078%=      5-min Rain = 0
KCO2 150523Z 02004KT 02/M01 A3045 RMK A01 T00201013  RH  079%=      5-min Rain = 0
KCO2 150524Z 01004KT 02/M01 A3045 RMK A01 T00201012  RH  079%=      5-min Rain = 0
KCO2 150525Z 01004KT 02/M01 A3045 RMK A01 T00211010  RH  080%=      5-min Rain = 0
KCO2 150526Z 01004KT 02/M01 A3045 RMK A01 T00221011  RH  079%=      5-min Rain = 0
KCO2 150527Z 01003KT 02/M02 A3045 RMK A01 T00201015  RH  078%=      5-min Rain = 0
KCO2 150528Z 01003KT 02/M02 A3045 RMK A01 T00161018  RH  078%=      5-min Rain = 0
KCO2 150529Z 01003KT 01/M02 A3045 RMK A01 T00141018  RH  079%=      5-min Rain = 0
KCO2 150530Z 02003KT 01/M02 A3045 RMK A01 T00141016  RH  080%=      5-min Rain = 0
KCO2 150531Z 02003KT 01/M02 A3045 RMK A01 T00121017  RH  081%=      5-min Rain = 0
KCO2 150532Z 02003KT 01/M02 A3045 RMK A01 T00111017  RH  081%=      5-min Rain = 0
KCO2 150533Z 02003KT 01/M02 A3045 RMK A01 T00111017  RH  082%=      5-min Rain = 0
KCO2 150534Z 02004KT 01/M02 A3045 RMK A01 T00101017  RH  083%=      5-min Rain = 0
KCO2 150535Z 02004KT 01/M02 A3045 RMK A01 T00101017  RH  083%=      5-min Rain = 0
KCO2 150536Z 02004KT 01/M02 A3045 RMK A01 T00091017  RH  083%=      5-min Rain = 0
KCO2 150537Z 02004KT 01/M02 A3045 RMK A01 T00081016  RH  084%=      5-min Rain = 0
KCO2 150538Z 02004KT 01/M02 A3045 RMK A01 T00081016  RH  084%=      5-min Rain = 0
KCO2 150539Z 03003KT 01/M02 A3045 RMK A01 T00081016  RH  084%=      5-min Rain = 0
KCO2 150540Z 03003KT 01/M02 A3045 RMK A01 T00081016  RH  084%=      5-min Rain = 0
KCO2 150541Z 02004KT 01/M02 A3045 RMK A01 T00081016  RH  084%=      5-min Rain = 0
KCO2 150542Z 03004KT 01/M02 A3045 RMK A01 T00081016  RH  084%=      5-min Rain = 0
KCO2 150543Z 03003KT 01/M02 A3045 RMK A01 T00081015  RH  084%=      5-min Rain = 0
KCO2 150544Z 04003KT 01/M02 A3045 RMK A01 T00081016  RH  084%=      5-min Rain = 0
KCO2 150545Z 04003KT 01/M02 A3045 RMK A01 T00091015  RH  084%=      5-min Rain = 0
KCO2 150546Z 03003KT 01/M02 A3045 RMK A01 T00091016  RH  083%=      5-min Rain = 0
KCO2 150547Z 03003KT 01/M02 A3045 RMK A01 T00101016  RH  083%=      5-min Rain = 0
KCO2 150548Z 03003KT 01/M02 A3045 RMK A01 T00101016  RH  083%=      5-min Rain = 0
KCO2 150549Z 03003KT 01/M02 A3045 RMK A01 T00101015  RH  083%=      5-min Rain = 0
KCO2 150550Z 03003KT 01/M02 A3045 RMK A01 T00101015  RH  083%=      5-min Rain = 0
KCO2 150551Z 03003KT 01/M02 A3045 RMK A01 T00101015  RH  083%=      5-min Rain = 0
KCO2 150552Z 03003KT 01/M02 A3045 RMK A01 T00101016  RH  083%=      5-min Rain = 0
KCO2 150553Z 03003KT 01/M02 A3045 RMK A01 T00101016  RH  083%=      5-min Rain = 0
KCO2 150554Z 03003KT 01/M02 A3045 RMK A01 T00101016  RH  083%=      5-min Rain = 0
KCO2 150555Z 03003KT 01/M02 A3045 RMK A01 T00101016  RH  083%=      5-min Rain = 0
KCO2 150556Z 03003KT 01/M02 A3045 RMK A01 T00101015  RH  083%=      5-min Rain = 0
KCO2 150557Z 04003KT 01/M02 A3045 RMK A01 T00101016  RH  083%=      5-min Rain = 0
KCO2 150558Z 03003KT 01/M02 A3045 RMK A01 T00101016  RH  083%=      5-min Rain = 0
KCO2 150559Z 03003KT 01/M02 A3045 RMK A01 T00111015  RH  083%=      5-min Rain = 0

Page generated in 0.1411 seconds.